M I D A S
Marine Information and Data Acquisition System
Tripno 866 of the Zeeleeuw from 2005-03-18 07:07:38 to 2005-03-18 15:38:58
Back to CruiseResearch ActivitiesStationsMapUnderway DataData graphs

EquipmentUnitsComment
TimeDGPSUTC
LatitudeDGPSDM.mWGS84
LongitudeDGPSDM.mWGS84
TemperatureSBE03/SBE38deg celciusITS90
ConductivitySBE21S/mITS90
SalinitySBE21 Practical Salinity Units
ChlorophylAChelsea fluorimeterg/lCalibrated in Aceton
Missing or incorrect values are displayed as -999
Sea surface data collected by the RV Zeeleeuw from 2005-03-18 07:08:53 to 2005-03-18 15:40:54
                                                                                    Next 1000 lines
Time Latitude Longitude Temperature Conductivity Salinity ChlorophylA
2005-03-18 07:09:03 51°13.596 2°56.096 -999 0.685141 3.833904 -0.882377
2005-03-18 07:09:08 51°13.596 2°56.093 -999 0.685141 3.83396 -0.916087
2005-03-18 07:09:13 51°13.597 2°56.089 -999 0.685141 3.83396 -0.916087
2005-03-18 07:09:19 51°13.599 2°56.085 -999 0.685141 3.834073 -0.882377
2005-03-18 07:09:23 51°13.6 2°56.081 -999 0.685141 3.834186 -0.848668
2005-03-18 07:09:29 51°13.601 2°56.076 -999 0.685141 3.834298 -0.882377
2005-03-18 07:09:34 51°13.603 2°56.071 -999 0.685037 3.833786 -0.882377
2005-03-18 07:09:39 51°13.604 2°56.066 -999 0.685141 3.834411 -0.882377
2005-03-18 07:09:43 51°13.606 2°56.062 -999 0.685141 3.834411 -0.882377
2005-03-18 07:09:49 51°13.607 2°56.059 -999 0.685037 3.833899 -0.882377
2005-03-18 07:09:54 51°13.607 2°56.059 -999 0.685037 3.833448 -0.848668
2005-03-18 07:09:59 51°13.606 2°56.06 -999 0.685037 3.832377 -0.882377
2005-03-18 07:10:03 51°13.605 2°56.063 -999 0.684933 3.83147 -0.882377
2005-03-18 07:10:09 51°13.603 2°56.068 -999 0.684933 3.83147 -0.882377
2005-03-18 07:10:13 51°13.601 2°56.072 -999 0.684933 3.832315 -0.882377
2005-03-18 07:10:19 51°13.599 2°56.078 -999 0.684933 3.834006 -0.848668
2005-03-18 07:10:24 51°13.596 2°56.083 -999 0.684933 3.83536 -0.848668
2005-03-18 07:10:28 51°13.594 2°56.087 -999 0.684933 3.835473 -0.848668
2005-03-18 07:10:33 51°13.591 2°56.093 -999 0.684933 3.834627 -0.882377
2005-03-18 07:10:38 51°13.588 2°56.099 -999 0.684933 3.833611 -0.882377
2005-03-18 07:10:43 51°13.585 2°56.105 -999 0.684933 3.833611 -0.882377
2005-03-18 07:10:48 51°13.582 2°56.11 -999 0.684933 3.832935 -0.916087
2005-03-18 07:10:53 51°13.578 2°56.116 -999 0.684933 3.832991 -0.848668
2005-03-18 07:10:58 51°13.574 2°56.122 -999 0.684933 3.833442 -0.882377
2005-03-18 07:11:03 51°13.57 2°56.127 -999 0.684933 3.83395 -0.882377
2005-03-18 07:11:08 51°13.566 2°56.132 -999 0.684933 3.834288 -0.882377
2005-03-18 07:11:13 51°13.562 2°56.138 -999 0.684933 3.834288 -0.882377
2005-03-18 07:11:18 51°13.557 2°56.143 -999 0.684828 3.833606 -0.916087
2005-03-18 07:11:24 51°13.553 2°56.151 -999 0.684828 3.833211 -0.882377
2005-03-18 07:11:28 51°13.55 2°56.157 -999 0.684828 3.832986 -0.882377
2005-03-18 07:11:34 51°13.547 2°56.166 -999 0.684828 3.833155 -0.882377
2005-03-18 07:11:38 51°13.545 2°56.172 -999 0.684828 3.833437 -0.882377
2005-03-18 07:11:43 51°13.543 2°56.181 -999 0.684828 3.833437 -0.882377
2005-03-18 07:11:48 51°13.542 2°56.19 -999 0.684828 3.833888 -0.848668
2005-03-18 07:11:53 51°13.542 2°56.199 -999 0.684828 3.834227 -0.882377
2005-03-18 07:11:57 51°13.542 2°56.205 -999 0.684724 3.83377 -0.882377
2005-03-18 07:12:03 51°13.543 2°56.215 -999 0.684724 3.83394 -0.882377
2005-03-18 07:12:08 51°13.543 2°56.221 -999 0.684724 3.83394 -0.882377
2005-03-18 07:12:13 51°13.543 2°56.226 -999 0.684828 3.834452 -0.882377
2005-03-18 07:12:18 51°13.544 2°56.229 -999 0.684724 3.833657 -0.848668
2005-03-18 07:12:23 51°13.544 2°56.23 -999 0.684724 3.833714 -0.848668
2005-03-18 07:12:28 51°13.544 2°56.231 -999 0.684724 3.833601 -0.882377
2005-03-18 07:12:34 51°13.543 2°56.23 -999 0.684724 3.83377 -0.882377
2005-03-18 07:12:38 51°13.542 2°56.228 -999 0.684724 3.833827 -0.916087
2005-03-18 07:12:43 51°13.541 2°56.225 -999 0.684724 3.833827 -0.916087
2005-03-18 07:12:48 51°13.54 2°56.222 -999 0.684724 3.834052 -0.916087
2005-03-18 07:12:54 51°13.539 2°56.219 -999 0.684619 3.83354 -0.882377
2005-03-18 07:12:59 51°13.539 2°56.217 -999 0.684619 3.833709 -0.882377
2005-03-18 07:13:04 51°13.539 2°56.216 -999 0.684619 3.833822 -0.916087
2005-03-18 07:13:09 51°13.539 2°56.217 -999 0.684619 3.833878 -0.882377
2005-03-18 07:13:14 51°13.54 2°56.22 -999 0.684619 3.833878 -0.882377
2005-03-18 07:13:19 51°13.542 2°56.223 -999 0.684619 3.833822 -0.882377
2005-03-18 07:13:24 51°13.544 2°56.227 -999 0.684619 3.834104 -0.848668
2005-03-18 07:13:29 51°13.545 2°56.229 -999 0.684619 3.834273 -0.882377
2005-03-18 07:13:34 51°13.546 2°56.23 -999 0.684515 3.83376 -0.882377
2005-03-18 07:13:39 51°13.546 2°56.23 -999 0.684515 3.83376 -0.882377
2005-03-18 07:13:43 51°13.545 2°56.229 -999 0.684619 3.834555 -0.882377
2005-03-18 07:13:49 51°13.543 2°56.227 -999 0.684515 3.834042 -0.916087
2005-03-18 07:13:54 51°13.541 2°56.225 -999 0.684515 3.834381 -0.882377
2005-03-18 07:13:58 51°13.539 2°56.222 -999 0.684515 3.834212 -0.882377
2005-03-18 07:14:03 51°13.537 2°56.22 -999 0.684515 3.834099 -0.882377
2005-03-18 07:14:09 51°13.536 2°56.219 -999 0.684515 3.834155 -0.882377
2005-03-18 07:14:14 51°13.536 2°56.219 -999 0.684515 3.834155 -0.882377
2005-03-18 07:14:19 51°13.537 2°56.219 -999 0.68441 3.833586 -0.882377
2005-03-18 07:14:24 51°13.539 2°56.221 -999 0.684515 3.834381 -0.882377
2005-03-18 07:14:29 51°13.542 2°56.222 -999 0.68441 3.834037 -0.882377
2005-03-18 07:14:33 51°13.544 2°56.223 -999 0.684515 3.834946 -0.882377
2005-03-18 07:14:39 51°13.546 2°56.225 -999 0.68441 3.83432 -0.916087
2005-03-18 07:14:43 51°13.546 2°56.225 -999 0.68441 3.83432 -0.916087
2005-03-18 07:14:49 51°13.546 2°56.226 -999 0.68441 3.834376 -0.848668
2005-03-18 07:14:54 51°13.545 2°56.226 -999 0.68441 3.83432 -0.882377
2005-03-18 07:14:59 51°13.542 2°56.226 -999 0.68441 3.834263 -0.882377
2005-03-18 07:15:03 51°13.54 2°56.226 -999 0.68441 3.83415 -0.848668
2005-03-18 07:15:09 51°13.536 2°56.225 -999 0.68441 3.834094 -0.848668
2005-03-18 07:15:14 51°13.534 2°56.225 -999 0.68441 3.834094 -0.848668
2005-03-18 07:15:19 51°13.532 2°56.224 -999 0.68441 3.834094 -0.882377
2005-03-18 07:15:24 51°13.531 2°56.224 -999 0.68441 3.834207 -0.882377
2005-03-18 07:15:29 51°13.532 2°56.224 -999 0.684306 3.833694 -0.882377
2005-03-18 07:15:34 51°13.534 2°56.224 -999 0.684306 3.833976 -0.882377
2005-03-18 07:15:38 51°13.536 2°56.223 -999 0.684306 3.833976 -0.882377
2005-03-18 07:15:44 51°13.54 2°56.222 -999 0.684306 3.834089 -0.882377
2005-03-18 07:15:49 51°13.542 2°56.22 -999 0.684306 3.834371 -0.882377
2005-03-18 07:15:54 51°13.545 2°56.219 -999 0.684306 3.834541 -0.882377
2005-03-18 07:15:59 51°13.546 2°56.219 -999 0.684306 3.834371 -0.916087
2005-03-18 07:16:04 51°13.547 2°56.219 -999 0.684306 3.834371 -0.882377
2005-03-18 07:16:09 51°13.546 2°56.22 -999 0.684306 3.834202 -0.916087
2005-03-18 07:16:14 51°13.545 2°56.222 -999 0.684306 3.834202 -0.916087
2005-03-18 07:16:19 51°13.543 2°56.224 -999 0.684306 3.834202 -0.916087
2005-03-18 07:16:23 51°13.541 2°56.227 -999 0.684202 3.833745 -0.882377
2005-03-18 07:16:28 51°13.539 2°56.23 -999 0.684202 3.833915 -0.916087
2005-03-18 07:16:34 51°13.536 2°56.234 -999 0.684202 3.834084 -0.882377
2005-03-18 07:16:39 51°13.533 2°56.237 -999 0.684202 3.834197 -0.882377
2005-03-18 07:16:44 51°13.531 2°56.239 -999 0.684202 3.834197 -0.882377
2005-03-18 07:16:49 51°13.531 2°56.239 -999 0.684202 3.834197 -0.882377
2005-03-18 07:16:53 51°13.532 2°56.238 -999 0.684202 3.835158 -0.882377
2005-03-18 07:16:59 51°13.534 2°56.236 -999 0.684202 3.837081 -0.882377
2005-03-18 07:17:04 51°13.536 2°56.23 -999 0.684097 3.836341 -0.882377
2005-03-18 07:17:09 51°13.538 2°56.224 -999 0.684097 3.834588 -0.882377
2005-03-18 07:17:14 51°13.541 2°56.217 -999 0.684097 3.834588 -0.882377
2005-03-18 07:17:19 51°13.543 2°56.209 -999 0.684097 3.831877 -0.916087
2005-03-18 07:17:23 51°13.545 2°56.202 -999 0.683993 3.830631 -0.916087
2005-03-18 07:17:29 51°13.548 2°56.191 -999 0.683993 3.830969 -0.882377
2005-03-18 07:17:33 51°13.55 2°56.182 -999 0.683993 3.832775 -0.916087
2005-03-18 07:17:38 51°13.552 2°56.173 -999 0.683993 3.832775 -0.916087
2005-03-18 07:17:43 51°13.555 2°56.161 -999 0.683993 3.83464 -0.916087
2005-03-18 07:17:48 51°13.558 2°56.149 -999 0.683993 3.835658 -0.882377
2005-03-18 07:17:53 51°13.562 2°56.138 -999 0.683993 3.835431 -0.882377
2005-03-18 07:17:58 51°13.566 2°56.127 -999 0.683888 3.8339 -0.916087
2005-03-18 07:18:03 51°13.57 2°56.115 -999 0.683888 3.833053 -0.882377
2005-03-18 07:18:08 51°13.575 2°56.103 -999 0.683888 3.832714 -0.916087
2005-03-18 07:18:13 51°13.579 2°56.091 -999 0.683888 3.832714 -0.916087
2005-03-18 07:18:18 51°13.584 2°56.08 -999 0.683888 3.832996 -0.882377
2005-03-18 07:18:23 51°13.589 2°56.066 -999 0.683888 3.833448 -0.882377
2005-03-18 07:18:27 51°13.593 2°56.056 -999 0.683888 3.833787 -0.882377
2005-03-18 07:18:33 51°13.599 2°56.041 -999 0.683784 3.833387 -0.848668
2005-03-18 07:18:38 51°13.604 2°56.028 -999 0.683888 3.833957 -0.882377
2005-03-18 07:18:43 51°13.609 2°56.015 -999 0.683888 3.833957 -0.882377
2005-03-18 07:18:47 51°13.613 2°56.004 -999 0.683784 3.833104 -0.848668
2005-03-18 07:18:53 51°13.62 2°55.989 -999 0.683784 3.832991 -0.882377
2005-03-18 07:18:58 51°13.625 2°55.976 -999 0.683784 3.832935 -0.882377
2005-03-18 07:19:04 51°13.631 2°55.961 -999 0.683784 3.832991 -0.882377
2005-03-18 07:19:07 51°13.635 2°55.951 -999 0.683784 3.832991 -0.882377
2005-03-18 07:19:13 51°13.642 2°55.935 -999 0.683784 3.833161 -0.916087
2005-03-18 07:19:17 51°13.647 2°55.924 -999 0.683784 3.833274 -0.882377
2005-03-18 07:19:23 51°13.654 2°55.906 -999 0.683784 3.83333 -0.882377
2005-03-18 07:19:27 51°13.659 2°55.896 -999 0.683679 3.83276 -0.882377
2005-03-18 07:19:33 51°13.667 2°55.876 -999 0.683679 3.832873 -0.882377
2005-03-18 07:19:38 51°13.674 2°55.86 -999 0.683679 3.83276 -0.882377
2005-03-18 07:19:43 51°13.681 2°55.845 -999 0.683679 3.83276 -0.882377
2005-03-18 07:19:48 51°13.688 2°55.829 -999 0.683679 3.832817 -0.916087
2005-03-18 07:19:54 51°13.697 2°55.812 -999 0.683679 3.832873 -0.848668
2005-03-18 07:19:59 51°13.704 2°55.796 -999 0.683679 3.833099 -0.882377
2005-03-18 07:20:04 51°13.713 2°55.779 -999 0.683575 3.832586 -0.882377
2005-03-18 07:20:09 51°13.721 2°55.763 -999 0.683575 3.832699 -0.882377
2005-03-18 07:20:14 51°13.73 2°55.747 -999 0.683575 3.832699 -0.882377
2005-03-18 07:20:19 51°13.74 2°55.732 -999 0.683575 3.832642 -0.916087
2005-03-18 07:20:24 51°13.751 2°55.718 -999 0.683575 3.832586 -0.882377
2005-03-18 07:20:29 51°13.762 2°55.704 -999 0.683575 3.832642 -0.882377
2005-03-18 07:20:33 51°13.772 2°55.692 -999 0.683575 3.832812 -0.882377
2005-03-18 07:20:39 51°13.784 2°55.678 -999 0.683575 3.832812 -0.882377
2005-03-18 07:20:44 51°13.796 2°55.665 -999 0.683575 3.833038 -0.882377
2005-03-18 07:20:49 51°13.808 2°55.653 -999 0.68347 3.832524 -0.882377
2005-03-18 07:20:54 51°13.821 2°55.642 -999 0.68347 3.832524 -0.848668
2005-03-18 07:20:58 51°13.832 2°55.632 -999 0.68347 3.832524 -0.882377
2005-03-18 07:21:03 51°13.845 2°55.623 -999 0.68347 3.832581 -0.848668
2005-03-18 07:21:09 51°13.859 2°55.612 -999 0.68347 3.832581 -0.848668
2005-03-18 07:21:14 51°13.872 2°55.602 -999 0.68347 3.832863 -0.882377
2005-03-18 07:21:19 51°13.885 2°55.592 -999 0.68347 3.833033 -0.882377
2005-03-18 07:21:24 51°13.899 2°55.582 -999 0.68347 3.833203 -0.882377
2005-03-18 07:21:28 51°13.909 2°55.574 -999 0.68347 3.833316 -0.882377
2005-03-18 07:21:33 51°13.924 2°55.563 -999 0.68347 3.833259 -0.882377
2005-03-18 07:21:37 51°13.934 2°55.556 -999 0.683366 3.832689 -0.882377
2005-03-18 07:21:43 51°13.951 2°55.544 -999 0.683366 3.832689 -0.882377
2005-03-18 07:21:48 51°13.964 2°55.535 -999 0.683366 3.832859 -0.882377
2005-03-18 07:21:53 51°13.977 2°55.525 -999 0.683366 3.833028 -0.882377
2005-03-18 07:21:59 51°13.992 2°55.515 -999 0.683366 3.833198 -0.916087
2005-03-18 07:22:04 51°14.006 2°55.507 -999 0.683366 3.833085 -0.882377
2005-03-18 07:22:08 51°14.018 2°55.498 -999 0.683366 3.833368 -0.882377
2005-03-18 07:22:14 51°14.033 2°55.488 -999 0.683366 3.833368 -0.882377
2005-03-18 07:22:18 51°14.044 2°55.481 -999 0.683262 3.832797 -0.882377
2005-03-18 07:22:23 51°14.059 2°55.471 -999 0.683366 3.833368 -0.848668
2005-03-18 07:22:28 51°14.071 2°55.462 -999 0.683262 3.832797 -0.882377
2005-03-18 07:22:33 51°14.086 2°55.452 -999 0.683262 3.832854 -0.882377
2005-03-18 07:22:38 51°14.1 2°55.442 -999 0.683262 3.83291 -0.848668
2005-03-18 07:22:43 51°14.113 2°55.432 -999 0.683262 3.83291 -0.848668
2005-03-18 07:22:47 51°14.124 2°55.423 -999 0.683262 3.832967 -0.848668
2005-03-18 07:22:53 51°14.14 2°55.41 -999 0.683262 3.833023 -0.916087
2005-03-18 07:22:58 51°14.152 2°55.399 -999 0.683262 3.83308 -0.848668
2005-03-18 07:23:03 51°14.166 2°55.386 -999 0.683262 3.83308 -0.882377
2005-03-18 07:23:07 51°14.177 2°55.377 -999 0.683157 3.832566 -0.882377
2005-03-18 07:23:13 51°14.192 2°55.361 -999 0.683157 3.832566 -0.882377
2005-03-18 07:23:18 51°14.203 2°55.349 -999 0.683157 3.832566 -0.882377
2005-03-18 07:23:23 51°14.217 2°55.333 -999 0.683157 3.832623 -0.882377
2005-03-18 07:23:28 51°14.228 2°55.319 -999 0.683157 3.832736 -0.848668
2005-03-18 07:23:33 51°14.24 2°55.302 -999 0.683157 3.832736 -0.882377
2005-03-18 07:23:38 51°14.25 2°55.287 -999 0.683157 3.832792 -0.882377
2005-03-18 07:23:43 51°14.262 2°55.269 -999 0.683157 3.832792 -0.882377
2005-03-18 07:23:48 51°14.273 2°55.251 -999 0.683053 3.832166 -0.882377
2005-03-18 07:23:53 51°14.282 2°55.235 -999 0.683157 3.832792 -0.882377
2005-03-18 07:23:57 51°14.292 2°55.219 -999 0.683053 3.832222 -0.882377
2005-03-18 07:24:03 51°14.303 2°55.196 -999 0.683053 3.832222 -0.882377
2005-03-18 07:24:07 51°14.31 2°55.183 -999 0.683053 3.832222 -0.882377
2005-03-18 07:24:13 51°14.322 2°55.158 -999 0.683053 3.832392 -0.882377
2005-03-18 07:24:17 51°14.329 2°55.142 -999 0.683053 3.832448 -0.882377
2005-03-18 07:24:22 51°14.337 2°55.125 -999 0.683053 3.832505 -0.882377
2005-03-18 07:24:28 51°14.349 2°55.098 -999 0.683053 3.832505 -0.882377
2005-03-18 07:24:33 51°14.359 2°55.078 -999 0.682948 3.831991 -0.882377
2005-03-18 07:24:38 51°14.368 2°55.057 -999 0.682948 3.831991 -0.882377
2005-03-18 07:24:43 51°14.378 2°55.038 -999 0.683053 3.832675 -0.882377
2005-03-18 07:24:48 51°14.388 2°55.02 -999 0.682948 3.832048 -0.882377
2005-03-18 07:24:53 51°14.4 2°54.998 -999 0.682948 3.832104 -0.882377
2005-03-18 07:24:57 51°14.409 2°54.983 -999 0.682948 3.832274 -0.848668
2005-03-18 07:25:03 51°14.423 2°54.96 -999 0.682948 3.8325 -0.882377
2005-03-18 07:25:08 51°14.435 2°54.94 -999 0.682948 3.832557 -0.882377
2005-03-18 07:25:13 51°14.447 2°54.921 -999 0.682948 3.832557 -0.882377
2005-03-18 07:25:18 51°14.459 2°54.904 -999 0.682948 3.832557 -0.882377
2005-03-18 07:25:22 51°14.47 2°54.889 -999 0.682948 3.832557 -0.916087
2005-03-18 07:25:29 51°14.49 2°54.862 -999 0.682948 3.832613 -0.882377
2005-03-18 07:25:33 51°14.502 2°54.846 -999 0.682948 3.83267 -0.848668
2005-03-18 07:25:37 51°14.514 2°54.831 -999 0.682844 3.832043 -0.882377
2005-03-18 07:25:43 51°14.531 2°54.809 -999 0.682844 3.832043 -0.882377
2005-03-18 07:25:48 51°14.544 2°54.791 -999 0.682844 3.832099 -0.916087
2005-03-18 07:25:53 51°14.56 2°54.771 -999 0.682426 3.825807 -0.882377
2005-03-18 07:25:58 51°14.573 2°54.754 -999 0.682635 3.826101 -0.848668
2005-03-18 07:26:02 51°14.584 2°54.739 -999 0.682321 3.824053 -0.882377
2005-03-18 07:26:07 51°14.601 2°54.719 -999 0.682113 3.821393 -0.882377
2005-03-18 07:26:14 51°14.619 2°54.694 -999 0.682113 3.821393 -0.882377
2005-03-18 07:26:19 51°14.633 2°54.675 -999 0.682112 3.818861 -0.71383
2005-03-18 07:26:23 51°14.646 2°54.658 -999 0.861758 4.940017 -0.444155
2005-03-18 07:26:28 51°14.66 2°54.638 -999 0.528435 2.934564 -0.410446
2005-03-18 07:26:33 51°14.672 2°54.621 -999 1.491608 9.556532 0.297452
2005-03-18 07:26:38 51°14.686 2°54.598 -999 1.872383 13.877591 0.701965
2005-03-18 07:26:43 51°14.699 2°54.578 -999 1.872383 13.877591 0.701965
2005-03-18 07:26:47 51°14.708 2°54.563 -999 2.739302 22.637546 0.769383
2005-03-18 07:26:53 51°14.724 2°54.536 -999 3.172974 28.302159 2.286306
2005-03-18 07:26:58 51°14.736 2°54.514 -999 3.200894 29.8602 2.960494
2005-03-18 07:27:03 51°14.748 2°54.492 -999 3.155836 30.127493 3.19646
2005-03-18 07:27:07 51°14.757 2°54.474 -999 3.130992 30.307938 3.398717
2005-03-18 07:27:13 51°14.771 2°54.447 -999 3.130992 30.307938 3.398717
2005-03-18 07:27:18 51°14.781 2°54.428 -999 3.105095 30.340152 3.567264
2005-03-18 07:27:23 51°14.793 2°54.403 -999 3.094043 30.443534 3.634683
2005-03-18 07:27:29 51°14.806 2°54.378 -999 3.058144 30.197007 3.735811
2005-03-18 07:27:33 51°14.816 2°54.357 -999 3.066988 30.413906 3.735811
2005-03-18 07:27:38 51°14.827 2°54.335 -999 3.040986 30.209593 3.634683
2005-03-18 07:27:43 51°14.838 2°54.312 -999 3.040986 30.209593 3.634683
2005-03-18 07:27:48 51°14.849 2°54.289 -999 3.050462 30.374161 3.634683
2005-03-18 07:27:53 51°14.86 2°54.267 -999 3.038882 30.276611 3.533554
2005-03-18 07:27:58 51°14.87 2°54.243 -999 3.039724 30.311197 3.499845
2005-03-18 07:28:03 51°14.88 2°54.219 -999 3.039514 30.354243 3.398717
2005-03-18 07:28:08 51°14.889 2°54.197 -999 3.039514 30.354243 3.398717
2005-03-18 07:28:14 51°14.899 2°54.167 -999 3.001091 29.983087 3.432426
2005-03-18 07:28:18 51°14.906 2°54.148 -999 3.027619 30.312992 3.365007
2005-03-18 07:28:23 51°14.916 2°54.12 -999 3.036778 30.431374 3.297589
2005-03-18 07:28:27 51°14.922 2°54.099 -999 3.034884 30.433646 3.331298
2005-03-18 07:28:33 51°14.931 2°54.069 -999 3.033515 30.442537 3.297589
2005-03-18 07:28:38 51°14.94 2°54.043 -999 3.031305 30.421127 3.162751
2005-03-18 07:28:43 51°14.948 2°54.017 -999 3.031305 30.421127 3.162751
2005-03-18 07:28:48 51°14.956 2°53.991 -999 3.015304 30.259195 3.297589
2005-03-18 07:28:53 51°14.964 2°53.965 -999 2.993935 30.046952 3.297589
2005-03-18 07:28:58 51°14.972 2°53.94 -999 3.031095 30.466213 3.365007
2005-03-18 07:29:03 51°14.981 2°53.914 -999 2.999619 30.129212 3.331298
2005-03-18 07:29:08 51°14.988 2°53.89 -999 3.020568 30.36562 3.23017
2005-03-18 07:29:13 51°14.996 2°53.862 -999 3.020568 30.36562 3.23017
2005-03-18 07:29:18 51°15.003 2°53.837 -999 3.016357 30.323508 3.23017
2005-03-18 07:29:23 51°15.011 2°53.809 -999 3.015725 30.311841 3.162751
2005-03-18 07:29:28 51°15.018 2°53.783 -999 3.01762 30.343747 2.859366
2005-03-18 07:29:33 51°15.025 2°53.756 -999 3.003199 30.192081 2.690819
2005-03-18 07:29:38 51°15.032 2°53.73 -999 2.991515 30.089311 2.589691
2005-03-18 07:29:43 51°15.04 2°53.704 -999 2.991515 30.089311 2.589691
2005-03-18 07:29:48 51°15.047 2°53.677 -999 3.015621 30.377484 2.454853
2005-03-18 07:29:53 51°15.054 2°53.651 -999 2.996883 30.180651 2.286306
2005-03-18 07:29:58 51°15.061 2°53.627 -999 2.984778 30.043727 2.286306
2005-03-18 07:30:03 51°15.068 2°53.598 -999 2.998883 30.205223 2.185178
2005-03-18 07:30:07 51°15.074 2°53.577 -999 3.002568 30.26096 2.08405
2005-03-18 07:30:14 51°15.084 2°53.542 -999 3.002568 30.26096 2.08405
2005-03-18 07:30:18 51°15.09 2°53.52 -999 3.005516 30.306996 2.050341
2005-03-18 07:30:23 51°15.097 2°53.493 -999 2.987726 30.110462 1.915503
2005-03-18 07:30:28 51°15.104 2°53.466 -999 2.987094 30.106524 2.016631
2005-03-18 07:30:34 51°15.112 2°53.438 -999 3.001831 30.274508 1.982922
2005-03-18 07:30:39 51°15.12 2°53.411 -999 2.990463 30.163383 1.915503
2005-03-18 07:30:43 51°15.126 2°53.389 -999 2.990463 30.163383 1.915503
2005-03-18 07:30:47 51°15.132 2°53.366 -999 2.971305 29.96238 1.881794
2005-03-18 07:30:54 51°15.142 2°53.328 -999 2.994253 30.229679 1.915503
2005-03-18 07:30:58 51°15.148 2°53.307 -999 2.993621 30.242857 1.915503
2005-03-18 07:31:03 51°15.156 2°53.281 -999 2.988253 30.202393 1.881794
2005-03-18 07:31:08 51°15.164 2°53.254 -999 2.964569 29.957457 1.915503
2005-03-18 07:31:11 51°15.168 2°53.238 -999 2.964569 29.957457 1.915503
2005-03-18 07:31:18 51°15.179 2°53.201 -999 2.982885 30.170445 1.982922
2005-03-18 07:31:24 51°15.187 2°53.172 -999 2.968149 30.022146 1.915503
2005-03-18 07:31:28 51°15.193 2°53.15 -999 2.979517 30.158477 1.982922
2005-03-18 07:31:33 51°15.201 2°53.121 -999 2.976464 30.130577 1.915503
2005-03-18 07:31:38 51°15.209 2°53.095 -999 2.976464 30.130577 1.915503
2005-03-18 07:31:44 51°15.217 2°53.066 -999 2.966044 30.034269 2.08405
2005-03-18 07:31:48 51°15.223 2°53.045 -999 2.961728 29.999968 2.016631
2005-03-18 07:31:54 51°15.232 2°53.012 -999 2.971096 30.111761 2.117759
2005-03-18 07:31:58 51°15.238 2°52.989 -999 2.977307 30.185953 2.016631
2005-03-18 07:32:03 51°15.246 2°52.962 -999 2.97036 30.117525 2.08405
2005-03-18 07:32:09 51°15.254 2°52.933 -999 2.980149 30.236533 2.151469
2005-03-18 07:32:14 51°15.261 2°52.906 -999 2.980149 30.236533 2.151469
2005-03-18 07:32:18 51°15.266 2°52.882 -999 2.946361 29.858258 2.050341
2005-03-18 07:32:23 51°15.272 2°52.854 -999 2.952887 29.941338 2.117759
2005-03-18 07:32:28 51°15.277 2°52.83 -999 2.954887 29.9645 2.08405
2005-03-18 07:32:34 51°15.283 2°52.797 -999 2.978676 30.228623 2.151469
2005-03-18 07:32:38 51°15.287 2°52.771 -999 2.979202 30.236868 2.185178
2005-03-18 07:32:42 51°15.291 2°52.749 -999 2.979202 30.236868 2.185178
2005-03-18 07:32:48 51°15.296 2°52.718 -999 2.957939 30.00178 2.252597
2005-03-18 07:32:53 51°15.301 2°52.688 -999 2.980149 30.264716 2.353725
2005-03-18 07:32:58 51°15.305 2°52.66 -999 2.960676 30.05187 2.387435
2005-03-18 07:33:04 51°15.31 2°52.629 -999 2.975518 30.221386 2.454853
2005-03-18 07:33:08 51°15.314 2°52.603 -999 2.982992 30.307579 2.488563
2005-03-18 07:33:13 51°15.319 2°52.576 -999 2.982992 30.307579 2.488563
2005-03-18 07:33:19 51°15.324 2°52.546 -999 2.976044 30.226506 2.589691
2005-03-18 07:33:24 51°15.328 2°52.518 -999 2.96436 30.099396 2.65711
2005-03-18 07:33:29 51°15.333 2°52.49 -999 2.972887 30.192655 2.758238
2005-03-18 07:33:33 51°15.336 2°52.465 -999 2.980781 30.28513 2.724529
2005-03-18 07:33:39 51°15.341 2°52.434 -999 2.982781 30.312284 2.758238
2005-03-18 07:33:43 51°15.345 2°52.409 -999 2.982781 30.312284 2.758238
2005-03-18 07:33:49 51°15.35 2°52.379 -999 2.982781 30.316996 2.690819
2005-03-18 07:33:54 51°15.355 2°52.351 -999 2.981202 30.299273 2.724529
2005-03-18 07:33:58 51°15.359 2°52.326 -999 2.958466 30.045774 2.690819
2005-03-18 07:34:04 51°15.363 2°52.296 -999 2.986887 30.36387 2.791947
2005-03-18 07:34:08 51°15.367 2°52.274 -999 2.938257 29.817745 2.791947
2005-03-18 07:34:13 51°15.372 2°52.243 -999 2.938257 29.817745 2.791947
2005-03-18 07:34:18 51°15.377 2°52.216 -999 2.976781 30.249656 2.825657
2005-03-18 07:34:23 51°15.381 2°52.188 -999 2.969308 30.170495 2.893076
2005-03-18 07:34:29 51°15.387 2°52.158 -999 2.981202 30.302414 2.859366
2005-03-18 07:34:34 51°15.392 2°52.131 -999 2.987623 30.372143 2.893076
2005-03-18 07:34:38 51°15.396 2°52.106 -999 2.987413 30.368992 2.926785
2005-03-18 07:34:43 51°15.401 2°52.078 -999 2.987413 30.368992 2.926785
2005-03-18 07:34:49 51°15.406 2°52.047 -999 2.979308 30.27487 2.791947
2005-03-18 07:34:54 51°15.411 2°52.02 -999 2.978255 30.26541 2.926785
2005-03-18 07:34:58 51°15.416 2°51.995 -999 2.986887 30.367805 2.859366
2005-03-18 07:35:03 51°15.421 2°51.968 -999 2.976255 30.251589 2.893076
2005-03-18 07:35:08 51°15.426 2°51.94 -999 2.985939 30.362676 2.893076
2005-03-18 07:35:13 51°15.431 2°51.913 -999 2.985939 30.362676 2.893076
2005-03-18 07:35:19 51°15.437 2°51.882 -999 2.986887 30.371741 2.825657
2005-03-18 07:35:24 51°15.442 2°51.855 -999 2.991202 30.421003 3.027913
2005-03-18 07:35:28 51°15.447 2°51.83 -999 2.99415 30.456483 3.027913
2005-03-18 07:35:33 51°15.452 2°51.803 -999 2.990676 30.4214 2.994204
2005-03-18 07:35:38 51°15.457 2°51.779 -999 2.991518 30.434807 3.061623
2005-03-18 07:35:42 51°15.462 2°51.754 -999 2.991518 30.434807 3.061623
2005-03-18 07:35:47 51°15.467 2°51.726 -999 2.985203 30.365421 3.027913
2005-03-18 07:35:54 51°15.473 2°51.691 -999 2.987097 30.383556 3.061623
2005-03-18 07:35:59 51°15.478 2°51.664 -999 2.985413 30.367786 2.960494
2005-03-18 07:36:03 51°15.483 2°51.639 -999 2.989308 30.413123 2.960494
2005-03-18 07:36:09 51°15.488 2°51.609 -999 2.986676 30.383553 2.893076
2005-03-18 07:36:13 51°15.493 2°51.584 -999 2.986676 30.383553 2.893076
2005-03-18 07:36:18 51°15.498 2°51.557 -999 2.991518 30.437175 2.758238
2005-03-18 07:36:23 51°15.503 2°51.53 -999 2.994571 30.469113 2.724529
2005-03-18 07:36:29 51°15.508 2°51.499 -999 2.970571 30.199539 2.690819
2005-03-18 07:36:34 51°15.513 2°51.472 -999 2.987097 30.383556 2.724529
2005-03-18 07:36:38 51°15.517 2°51.447 -999 2.987624 30.391045 2.65711
2005-03-18 07:36:42 51°15.521 2°51.428 -999 2.987624 30.391045 2.65711
2005-03-18 07:36:48 51°15.527 2°51.392 -999 2.985729 30.369759 2.65711
2005-03-18 07:36:52 51°15.531 2°51.37 -999 2.994466 30.46556 2.65711
2005-03-18 07:36:59 51°15.538 2°51.335 -999 2.999413 30.523541 2.6234
2005-03-18 07:37:03 51°15.542 2°51.311 -999 2.996361 30.489226 2.6234
2005-03-18 07:37:08 51°15.547 2°51.282 -999 2.996361 30.489226 2.6234
2005-03-18 07:37:14 51°15.552 2°51.253 -999 3.00415 30.583936 2.522272
2005-03-18 07:37:18 51°15.556 2°51.228 -999 3.004045 30.584339 2.555982
2005-03-18 07:37:24 51°15.561 2°51.197 -999 2.986571 30.394983 2.488563
2005-03-18 07:37:29 51°15.565 2°51.17 -999 2.990887 30.44429 2.522272
2005-03-18 07:37:33 51°15.568 2°51.147 -999 2.998887 30.535045 2.488563
2005-03-18 07:37:38 51°15.573 2°51.119 -999 2.99994 30.546093 2.555982
2005-03-18 07:37:42 51°15.576 2°51.097 -999 2.99994 30.546093 2.555982
2005-03-18 07:37:48 51°15.581 2°51.063 -999 2.994676 30.488482 2.589691
2005-03-18 07:37:54 51°15.585 2°51.03 -999 2.998255 30.530318 2.488563
2005-03-18 07:37:58 51°15.588 2°51.007 -999 3.002887 30.582422 2.488563
2005-03-18 07:38:04 51°15.593 2°50.973 -999 3.001413 30.564256 2.488563
2005-03-18 07:38:08 51°15.596 2°50.95 -999 2.993624 30.475853 2.522272
2005-03-18 07:38:13 51°15.6 2°50.919 -999 2.993624 30.475853 2.522272
2005-03-18 07:38:19 51°15.604 2°50.888 -999 3.006993 30.623847 2.421144
2005-03-18 07:38:23 51°15.607 2°50.863 -999 3.002992 30.577259 2.488563
2005-03-18 07:38:29 51°15.611 2°50.832 -999 2.996782 30.5082 2.353725
2005-03-18 07:38:34 51°15.614 2°50.805 -999 3.000992 30.558726 2.421144
2005-03-18 07:38:39 51°15.617 2°50.776 -999 3.000992 30.558726 2.421144
2005-03-18 07:38:43 51°15.62 2°50.754 -999 2.992255 30.460466 2.320016
2005-03-18 07:38:49 51°15.624 2°50.72 -999 2.964045 30.143486 2.454853
2005-03-18 07:38:54 51°15.627 2°50.69 -999 2.991729 30.454548 2.387435
2005-03-18 07:38:59 51°15.63 2°50.664 -999 3.008887 30.647553 2.353725
2005-03-18 07:39:04 51°15.634 2°50.637 -999 2.982255 30.34569 2.421144
2005-03-18 07:39:09 51°15.637 2°50.609 -999 2.998255 30.518439 2.387435
2005-03-18 07:39:14 51°15.64 2°50.581 -999 2.998255 30.518439 2.387435
2005-03-18 07:39:19 51°15.643 2°50.553 -999 3.005203 30.593394 2.218888
2005-03-18 07:39:23 51°15.647 2°50.528 -999 3.003834 30.575625 2.252597
2005-03-18 07:39:28 51°15.649 2°50.503 -999 3.007624 30.615066 2.252597
2005-03-18 07:39:33 51°15.653 2°50.472 -999 3.005308 30.584266 2.320016
2005-03-18 07:39:38 51°15.657 2°50.444 -999 3.007624 30.607923 2.252597
2005-03-18 07:39:44 51°15.661 2°50.413 -999 3.007624 30.607923 2.252597
2005-03-18 07:39:48 51°15.664 2°50.39 -999 3.006466 30.591732 2.286306
2005-03-18 07:39:53 51°15.667 2°50.361 -999 3.016361 30.700605 2.252597
2005-03-18 07:39:58 51°15.671 2°50.333 -999 3.021519 30.760214 2.320016
2005-03-18 07:40:03 51°15.674 2°50.302 -999 3.013835 30.67299 2.286306
2005-03-18 07:40:09 51°15.678 2°50.271 -999 2.98815 30.383564 2.320016
2005-03-18 07:40:14 51°15.681 2°50.243 -999 2.98815 30.383564 2.320016
2005-03-18 07:40:18 51°15.685 2°50.218 -999 3.026993 30.8226 2.387435
2005-03-18 07:40:23 51°15.688 2°50.19 -999 3.026993 30.8226 2.421144
2005-03-18 07:40:28 51°15.692 2°50.162 -999 3.013519 30.672619 2.488563
2005-03-18 07:40:33 51°15.695 2°50.134 -999 3.027625 30.832904 2.454853
2005-03-18 07:40:38 51°15.698 2°50.109 -999 3.027625 30.832904 2.454853
2005-03-18 07:40:44 51°15.703 2°50.075 -999 3.028151 30.838028 2.421144
2005-03-18 07:40:48 51°15.705 2°50.052 -999 3.029941 30.856569 2.454853
2005-03-18 07:40:54 51°15.71 2°50.019 -999 3.029415 30.849846 2.454853
2005-03-18 07:40:58 51°15.713 2°49.994 -999 3.028467 30.838384 2.488563
2005-03-18 07:41:03 51°15.716 2°49.966 -999 3.027836 30.835274 2.555982
2005-03-18 07:41:08 51°15.719 2°49.94 -999 3.002992 30.557438 2.555982
2005-03-18 07:41:14 51°15.723 2°49.907 -999 3.002992 30.557438 2.555982
2005-03-18 07:41:18 51°15.726 2°49.882 -999 3.029836 30.858585 2.589691
2005-03-18 07:41:23 51°15.729 2°49.853 -999 3.02773 30.836488 2.65711
2005-03-18 07:41:28 51°15.732 2°49.824 -999 3.03352 30.898457 2.6234
2005-03-18 07:41:34 51°15.734 2°49.794 -999 3.020046 30.744433 2.555982
2005-03-18 07:41:38 51°15.737 2°49.768 -999 3.01973 30.739287 2.690819
2005-03-18 07:41:43 51°15.738 2°49.74 -999 3.01973 30.739287 2.690819
2005-03-18 07:41:48 51°15.74 2°49.715 -999 3.010571 30.637092 2.555982
2005-03-18 07:41:54 51°15.742 2°49.681 -999 3.018256 30.7251 2.65711
2005-03-18 07:41:59 51°15.744 2°49.652 -999 3.035942 30.926516 2.65711
2005-03-18 07:42:03 51°15.745 2°49.63 -999 3.036573 30.936835 2.690819
2005-03-18 07:42:08 51°15.747 2°49.598 -999 3.038995 30.966509 2.724529
2005-03-18 07:42:14 51°15.749 2°49.568 -999 3.038995 30.966509 2.724529
2005-03-18 07:42:19 51°15.751 2°49.539 -999 3.036994 30.942379 2.65711
2005-03-18 07:42:23 51°15.753 2°49.514 -999 3.018572 30.736621 2.690819
2005-03-18 07:42:29 51°15.755 2°49.482 -999 3.033941 30.911211 2.690819
2005-03-18 07:42:34 51°15.757 2°49.454 -999 3.024572 30.807337 2.758238
2005-03-18 07:42:38 51°15.759 2°49.428 -999 3.032468 30.896219 2.758238
2005-03-18 07:42:42 51°15.76 2°49.406 -999 3.032468 30.896219 2.758238
2005-03-18 07:42:48 51°15.762 2°49.371 -999 3.034468 30.919544 2.690819
2005-03-18 07:42:53 51°15.764 2°49.343 -999 3.027941 30.849256 2.724529
2005-03-18 07:42:58 51°15.765 2°49.318 -999 3.028888 30.862325 2.6234
2005-03-18 07:43:03 51°15.767 2°49.286 -999 3.025836 30.827952 2.724529
2005-03-18 07:43:09 51°15.769 2°49.254 -999 2.996992 30.508984 2.690819
2005-03-18 07:43:14 51°15.771 2°49.223 -999 2.996992 30.508984 2.690819
2005-03-18 07:43:18 51°15.773 2°49.2 -999 3.028257 30.866423 2.690819
2005-03-18 07:43:23 51°15.774 2°49.172 -999 3.02931 30.880686 2.690819
2005-03-18 07:43:28 51°15.776 2°49.143 -999 2.993519 30.479415 2.65711
2005-03-18 07:43:34 51°15.778 2°49.109 -999 3.024678 30.834113 2.690819
2005-03-18 07:43:38 51°15.779 2°49.086 -999 3.029836 30.89303 2.65711
2005-03-18 07:43:43 51°15.781 2°49.058 -999 3.029836 30.89303 2.65711
2005-03-18 07:43:48 51°15.782 2°49.032 -999 3.0331 30.929805 2.724529
2005-03-18 07:43:54 51°15.785 2°48.997 -999 3.034468 30.950049 2.724529
2005-03-18 07:43:58 51°15.786 2°48.972 -999 3.027625 30.872128 2.758238
2005-03-18 07:44:04 51°15.788 2°48.94 -999 3.032047 30.918744 2.791947
2005-03-18 07:44:09 51°15.79 2°48.911 -999 3.01373 30.713209 2.724529
2005-03-18 07:44:14 51°15.792 2°48.883 -999 3.01373 30.713209 2.724529
2005-03-18 07:44:19 51°15.794 2°48.854 -999 3.030257 30.898577 2.724529
2005-03-18 07:44:24 51°15.795 2°48.826 -999 3.029626 30.890657 2.758238
2005-03-18 07:44:28 51°15.797 2°48.803 -999 3.027731 30.867704 2.791947
2005-03-18 07:44:33 51°15.798 2°48.772 -999 3.036574 30.966548 2.859366
2005-03-18 07:44:39 51°15.8 2°48.74 -999 3.030784 30.900497 2.791947
2005-03-18 07:44:44 51°15.802 2°48.711 -999 3.030784 30.900497 2.791947
2005-03-18 07:44:48 51°15.803 2°48.688 -999 3.031415 30.90601 2.859366
2005-03-18 07:44:54 51°15.805 2°48.654 -999 3.029731 30.887033 2.825657
2005-03-18 07:44:58 51°15.807 2°48.628 -999 3.026994 30.855398 2.893076
2005-03-18 07:45:04 51°15.809 2°48.596 -999 3.0331 30.927396 2.758238
2005-03-18 07:45:08 51°15.81 2°48.57 -999 3.03331 30.932981 2.859366
2005-03-18 07:45:13 51°15.812 2°48.542 -999 3.03331 30.932981 2.859366
2005-03-18 07:45:18 51°15.814 2°48.513 -999 3.031205 30.906846 2.859366
2005-03-18 07:45:23 51°15.816 2°48.484 -999 3.029731 30.895052 2.825657
2005-03-18 07:45:29 51°15.818 2°48.453 -999 3.030363 30.90217 2.825657
2005-03-18 07:45:34 51°15.82 2°48.425 -999 3.031521 30.916825 2.926785
2005-03-18 07:45:38 51°15.822 2°48.399 -999 3.026889 30.867832 2.825657
2005-03-18 07:45:44 51°15.824 2°48.367 -999 3.026889 30.867832 2.825657
2005-03-18 07:45:48 51°15.826 2°48.341 -999 3.030047 30.90824 2.859366
2005-03-18 07:45:53 51°15.828 2°48.313 -999 3.02152 30.812938 2.825657
2005-03-18 07:45:59 51°15.83 2°48.281 -999 3.010151 30.688846 2.893076
2005-03-18 07:46:03 51°15.832 2°48.255 -999 3.019941 30.806346 2.926785
2005-03-18 07:46:08 51°15.834 2°48.227 -999 3.029626 30.926788 2.994204
2005-03-18 07:46:14 51°15.836 2°48.196 -999 3.029626 30.926788 2.994204
2005-03-18 07:46:19 51°15.837 2°48.167 -999 3.029942 30.940001 3.129042
2005-03-18 07:46:23 51°15.839 2°48.142 -999 3.026047 30.905693 3.061623
2005-03-18 07:46:28 51°15.841 2°48.113 -999 3.030574 30.966454 3.23017
2005-03-18 07:46:34 51°15.843 2°48.082 -999 3.02889 30.959518 3.297589
2005-03-18 07:46:39 51°15.845 2°48.053 -999 3.026574 30.949471 3.331298
2005-03-18 07:46:43 51°15.847 2°48.028 -999 3.026574 30.949471 3.331298
2005-03-18 07:46:48 51°15.849 2°47.999 -999 3.014257 30.819961 3.297589
2005-03-18 07:46:53 51°15.851 2°47.971 -999 3.026574 30.976095 3.398717
2005-03-18 07:46:59 51°15.853 2°47.939 -999 3.000257 30.690629 3.365007
2005-03-18 07:47:03 51°15.855 2°47.913 -999 3.023837 30.971785 3.398717
2005-03-18 07:47:08 51°15.856 2°47.888 -999 3.017942 30.910716 3.365007
2005-03-18 07:47:13 51°15.858 2°47.856 -999 3.017942 30.910716 3.365007
2005-03-18 07:47:18 51°15.86 2°47.828 -999 3.017837 30.912752 3.499845
2005-03-18 07:47:24 51°15.863 2°47.796 -999 3.016574 30.903294 3.499845
2005-03-18 07:47:29 51°15.865 2°47.768 -999 3.0171 30.916515 3.432426
2005-03-18 07:47:34 51°15.867 2°47.739 -999 3.021206 30.967857 3.398717
2005-03-18 07:47:39 51°15.869 2°47.711 -999 3.010784 30.856291 3.365007
2005-03-18 07:47:44 51°15.871 2°47.682 -999 3.010784 30.856291 3.365007
2005-03-18 07:47:49 51°15.873 2°47.654 -999 3.019943 30.962445 3.432426
2005-03-18 07:47:54 51°15.875 2°47.627 -999 3.017311 30.935863 3.297589
2005-03-18 07:47:59 51°15.876 2°47.598 -999 3.021206 30.979994 3.365007
2005-03-18 07:48:03 51°15.878 2°47.573 -999 3.020574 30.973646 3.23017
2005-03-18 07:48:08 51°15.88 2°47.544 -999 3.017206 30.936287 3.297589
2005-03-18 07:48:14 51°15.883 2°47.513 -999 3.017206 30.936287 3.297589
2005-03-18 07:48:18 51°15.886 2°47.488 -999 3.017732 30.939825 3.23017
2005-03-18 07:48:23 51°15.889 2°47.46 -999 3.008153 30.828103 3.19646
2005-03-18 07:48:28 51°15.891 2°47.431 -999 2.99731 30.703767 3.095332
2005-03-18 07:48:33 51°15.893 2°47.404 -999 3.018364 30.942939 3.19646
2005-03-18 07:48:39 51°15.894 2°47.373 -999 3.019206 30.95167 3.297589
2005-03-18 07:48:43 51°15.895 2°47.347 -999 3.019206 30.95167 3.297589
2005-03-18 07:48:48 51°15.896 2°47.321 -999 3.007416 30.81493 3.297589
2005-03-18 07:48:54 51°15.897 2°47.287 -999 3.018364 30.937282 3.331298
2005-03-18 07:48:59 51°15.898 2°47.259 -999 3.003836 30.770399 3.499845
2005-03-18 07:49:03 51°15.899 2°47.237 -999 3.024995 31.008357 3.466136
2005-03-18 07:49:08 51°15.9 2°47.205 -999 3.025627 31.013893 3.567264
2005-03-18 07:49:14 51°15.901 2°47.175 -999 3.025627 31.013893 3.567264
2005-03-18 07:49:19 51°15.902 2°47.146 -999 3.027943 31.037697 3.600973
2005-03-18 07:49:23 51°15.903 2°47.121 -999 3.028469 31.045281 3.735811
2005-03-18 07:49:29 51°15.904 2°47.089 -999 3.022364 30.97612 3.702101
2005-03-18 07:49:34 51°15.905 2°47.061 -999 3.026364 31.02062 3.870648
2005-03-18 07:49:38 51°15.905 2°47.039 -999 3.026364 31.02062 3.870648
2005-03-18 07:49:43 51°15.906 2°47.008 -999 3.032996 31.095757 3.80323
2005-03-18 07:49:48 51°15.907 2°46.979 -999 3.023732 30.989192 3.836939
2005-03-18 07:49:53 51°15.908 2°46.951 -999 3.031838 31.082636 3.904358
2005-03-18 07:49:58 51°15.909 2°46.922 -999 3.029312 31.0532 4.005486
2005-03-18 07:50:03 51°15.909 2°46.894 -999 3.034996 31.118422 4.005486
2005-03-18 07:50:08 51°15.91 2°46.868 -999 3.03047 31.067942 4.072905
2005-03-18 07:50:14 51°15.911 2°46.831 -999 3.03047 31.067942 4.072905
2005-03-18 07:50:18 51°15.912 2°46.809 -999 3.027627 31.034119 3.938067
2005-03-18 07:50:24 51°15.913 2°46.777 -999 3.031733 31.078197 4.106614
2005-03-18 07:50:28 51°15.914 2°46.751 -999 3.037944 31.149388 4.072905
2005-03-18 07:50:32 51°15.915 2°46.728 -999 3.034259 31.104386 4.072905
2005-03-18 07:50:38 51°15.916 2°46.695 -999 3.035101 31.111491 4.039195
2005-03-18 07:50:44 51°15.917 2°46.663 -999 3.035101 31.111491 4.039195
2005-03-18 07:50:49 51°15.918 2°46.635 -999 3.032785 31.085254 3.971777
2005-03-18 07:50:52 51°15.919 2°46.615 -999 3.006784 30.787678 4.072905
2005-03-18 07:50:58 51°15.92 2°46.581 -999 3.034259 31.096268 4.005486
2005-03-18 07:51:04 51°15.921 2°46.55 -999 3.038049 31.13676 4.005486
2005-03-18 07:51:09 51°15.921 2°46.522 -999 3.038049 31.13676 4.005486
2005-03-18 07:51:12 51°15.922 2°46.502 -999 3.032154 31.069989 3.938067
2005-03-18 07:51:19 51°15.923 2°46.465 -999 3.031627 31.059975 3.971777
2005-03-18 07:51:23 51°15.923 2°46.44 -999 3.029206 31.030132 4.005486
2005-03-18 07:51:28 51°15.924 2°46.411 -999 3.031522 31.050681 4.072905
2005-03-18 07:51:34 51°15.925 2°46.381 -999 3.046576 31.216267 4.072905
2005-03-18 07:51:38 51°15.926 2°46.356 -999 3.043312 31.175241 3.971777
2005-03-18 07:51:43 51°15.926 2°46.328 -999 3.043312 31.175241 3.971777
2005-03-18 07:51:49 51°15.927 2°46.296 -999 3.04605 31.201353 3.836939
2005-03-18 07:51:53 51°15.929 2°46.271 -999 3.036048 31.082469 3.904358
2005-03-18 07:51:59 51°15.934 2°46.241 -999 3.04247 31.151082 3.971777
2005-03-18 07:52:04 51°15.939 2°46.215 -999 3.050787 31.240337 3.870648
2005-03-18 07:52:08 51°15.945 2°46.191 -999 3.044997 31.168304 3.904358
2005-03-18 07:52:14 51°15.954 2°46.161 -999 3.044997 31.168304 3.904358
2005-03-18 07:52:18 51°15.961 2°46.14 -999 3.055629 31.284563 3.870648
2005-03-18 07:52:23 51°15.969 2°46.116 -999 3.052155 31.239547 3.76952
2005-03-18 07:52:29 51°15.979 2°46.088 -999 3.057735 31.296981 3.938067
2005-03-18 07:52:34 51°15.988 2°46.063 -999 3.054682 31.253484 3.76952
2005-03-18 07:52:38 51°15.995 2°46.044 -999 3.049207 31.185078 3.76952
2005-03-18 07:52:42 51°16.003 2°46.022 -999 3.049207 31.185078 3.76952
2005-03-18 07:52:48 51°16.015 2°45.992 -999 3.056155 31.260389 3.904358
2005-03-18 07:52:54 51°16.026 2°45.966 -999 3.058261 31.279315 3.668392
2005-03-18 07:52:59 51°16.037 2°45.941 -999 3.065736 31.364666 3.76952
2005-03-18 07:53:03 51°16.046 2°45.92 -999 3.062998 31.336152 3.735811
2005-03-18 07:53:09 51°16.057 2°45.894 -999 3.065315 31.363984 3.80323
2005-03-18 07:53:14 51°16.068 2°45.87 -999 3.065315 31.363984 3.80323
2005-03-18 07:53:19 51°16.078 2°45.845 -999 3.041417 31.097831 3.836939
2005-03-18 07:53:23 51°16.087 2°45.824 -999 3.068157 31.402682 4.005486
2005-03-18 07:53:29 51°16.1 2°45.795 -999 3.054155 31.24509 4.207742
2005-03-18 07:53:34 51°16.109 2°45.773 -999 3.069842 31.423382 4.275161
2005-03-18 07:53:39 51°16.12 2°45.75 -999 3.032574 30.998721 4.241452
2005-03-18 07:53:44 51°16.131 2°45.725 -999 3.032574 30.998721 4.241452
2005-03-18 07:53:48 51°16.14 2°45.704 -999 3.060472 31.313278 4.174033
2005-03-18 07:53:53 51°16.15 2°45.68 -999 3.033943 31.010146 4.308871
2005-03-18 07:53:58 51°16.161 2°45.656 -999 3.049944 31.18935 4.207742
2005-03-18 07:54:03 51°16.172 2°45.632 -999 3.060682 31.309955 4.207742
2005-03-18 07:54:08 51°16.183 2°45.608 -999 3.069631 31.407099 4.174033
2005-03-18 07:54:13 51°16.193 2°45.585 -999 3.069631 31.407099 4.174033
2005-03-18 07:54:18 51°16.204 2°45.561 -999 3.065209 31.353816 4.039195
2005-03-18 07:54:23 51°16.214 2°45.537 -999 3.062261 31.315592 4.308871
2005-03-18 07:54:29 51°16.226 2°45.51 -999 3.068473 31.380116 4.612255
2005-03-18 07:54:34 51°16.236 2°45.486 -999 3.067841 31.368079 4.578546
2005-03-18 07:54:38 51°16.246 2°45.464 -999 3.068051 31.363119 4.578546
2005-03-18 07:54:43 51°16.256 2°45.441 -999 3.068051 31.363119 4.578546
2005-03-18 07:54:48 51°16.266 2°45.419 -999 3.078158 31.471656 4.443708
2005-03-18 07:54:54 51°16.278 2°45.389 -999 3.084896 31.542931 4.409999
2005-03-18 07:54:59 51°16.289 2°45.365 -999 3.081527 31.495833 4.443708
2005-03-18 07:55:04 51°16.299 2°45.339 -999 3.061629 31.267783 4.34258
2005-03-18 07:55:08 51°16.309 2°45.317 -999 3.068262 31.341055 4.308871
2005-03-18 07:55:14 51°16.32 2°45.291 -999 3.068262 31.341055 4.308871
2005-03-18 07:55:18 51°16.33 2°45.269 -999 3.068683 31.344183 4.308871
2005-03-18 07:55:24 51°16.341 2°45.241 -999 3.084159 31.515759 4.477418
2005-03-18 07:55:28 51°16.351 2°45.22 -999 3.058155 31.218828 4.443708
2005-03-18 07:55:34 51°16.363 2°45.193 -999 3.078053 31.441862 4.443708
2005-03-18 07:55:39 51°16.373 2°45.169 -999 3.089318 31.569146 4.511127
2005-03-18 07:55:44 51°16.384 2°45.144 -999 3.089318 31.569146 4.511127
2005-03-18 07:55:48 51°16.392 2°45.125 -999 3.087739 31.554576 4.612255
2005-03-18 07:55:53 51°16.403 2°45.098 -999 3.080895 31.478061 4.679674
2005-03-18 07:55:58 51°16.414 2°45.074 -999 3.084159 31.517396 4.747093
2005-03-18 07:56:04 51°16.425 2°45.047 -999 3.061208 31.26384 4.88193
2005-03-18 07:56:08 51°16.434 2°45.028 -999 3.07321 31.403473 4.983059
2005-03-18 07:56:13 51°16.446 2°45.001 -999 3.07321 31.403473 4.983059
2005-03-18 07:56:18 51°16.456 2°44.976 -999 3.083422 31.522168 5.117896
2005-03-18 07:56:24 51°16.468 2°44.949 -999 3.057839 31.23473 5.016768
2005-03-18 07:56:29 51°16.479 2°44.926 -999 3.076579 31.449714 4.91564
2005-03-18 07:56:34 51°16.49 2°44.901 -999 3.074789 31.430301 4.949349
2005-03-18 07:56:38 51°16.499 2°44.879 -999 3.074789 31.430301 4.949349
2005-03-18 07:56:44 51°16.511 2°44.853 -999 3.077 31.455292 4.679674
2005-03-18 07:56:49 51°16.522 2°44.829 -999 3.073947 31.428949 4.578546
2005-03-18 07:56:54 51°16.533 2°44.805 -999 3.063314 31.31609 4.477418
2005-03-18 07:56:58 51°16.543 2°44.783 -999 3.067209 31.366647 4.376289
2005-03-18 07:57:04 51°16.555 2°44.757 -999 3.068052 31.383517 4.275161
2005-03-18 07:57:08 51°16.565 2°44.734 -999 3.055734 31.250747 4.207742
2005-03-18 07:57:14 51°16.577 2°44.709 -999 3.055734 31.250747 4.207742
2005-03-18 07:57:19 51°16.588 2°44.684 -999 3.0331 30.994986 4.106614
2005-03-18 07:57:23 51°16.598 2°44.663 -999 3.029732 30.955333 3.971777
2005-03-18 07:57:28 51°16.609 2°44.638 -999 3.061735 31.313713 3.904358
2005-03-18 07:57:33 51°16.62 2°44.614 -999 3.069526 31.397737 3.836939
2005-03-18 07:57:38 51°16.629 2°44.593 -999 3.062682 31.315465 3.80323
2005-03-18 07:57:43 51°16.641 2°44.565 -999 3.062682 31.315465 3.80323
2005-03-18 07:57:49 51°16.653 2°44.538 -999 3.066262 31.351041 3.76952
2005-03-18 07:57:54 51°16.665 2°44.513 -999 3.062893 31.308074 3.80323
2005-03-18 07:57:58 51°16.674 2°44.493 -999 3.071631 31.400316 3.76952
2005-03-18 07:58:04 51°16.686 2°44.466 -999 3.076368 31.448969 3.870648
2005-03-18 07:58:08 51°16.696 2°44.444 -999 3.07521 31.430976 3.836939
2005-03-18 07:58:14 51°16.708 2°44.418 -999 3.07521 31.430976 3.836939
2005-03-18 07:58:19 51°16.72 2°44.391 -999 3.080158 31.480363 3.904358
2005-03-18 07:58:24 51°16.729 2°44.368 -999 3.077737 31.448094 3.938067
2005-03-18 07:58:28 51°16.74 2°44.346 -999 3.090476 31.586337 3.836939
2005-03-18 07:58:34 51°16.752 2°44.32 -999 3.090897 31.584535 4.005486
2005-03-18 07:58:38 51°16.762 2°44.298 -999 3.084685 31.511068 4.039195
2005-03-18 07:58:44 51°16.774 2°44.272 -999 3.084685 31.511068 4.039195
2005-03-18 07:58:48 51°16.784 2°44.249 -999 3.091739 31.589133 4.106614
2005-03-18 07:58:54 51°16.797 2°44.22 -999 3.093529 31.606898 4.072905
2005-03-18 07:58:58 51°16.806 2°44.202 -999 3.088054 31.544219 4.140324
2005-03-18 07:59:04 51°16.818 2°44.175 -999 3.096898 31.640046 4.039195
2005-03-18 07:59:08 51°16.826 2°44.156 -999 3.099004 31.659734 4.039195
2005-03-18 07:59:14 51°16.839 2°44.127 -999 3.099004 31.659734 4.039195
2005-03-18 07:59:19 51°16.85 2°44.103 -999 3.102162 31.690495 4.174033
2005-03-18 07:59:24 51°16.86 2°44.079 -999 3.107321 31.745506 4.072905
2005-03-18 07:59:28 51°16.87 2°44.056 -999 3.104794 31.71119 4.072905
2005-03-18 07:59:34 51°16.882 2°44.03 -999 3.103531 31.692805 4.072905
2005-03-18 07:59:38 51°16.892 2°44.008 -999 3.106268 31.721261 4.140324
2005-03-18 07:59:43 51°16.902 2°43.984 -999 3.106268 31.721261 4.140324
2005-03-18 07:59:48 51°16.913 2°43.959 -999 3.112796 31.791719 4.072905
2005-03-18 07:59:54 51°16.925 2°43.933 -999 3.115744 31.825857 4.106614
2005-03-18 07:59:58 51°16.933 2°43.913 -999 3.120587 31.878945 4.140324
2005-03-18 08:00:04 51°16.946 2°43.884 -999 3.111954 31.78385 4.207742
2005-03-18 08:00:08 51°16.954 2°43.864 -999 3.129747 31.991634 4.174033
2005-03-18 08:00:13 51°16.966 2°43.838 -999 3.129747 31.991634 4.174033
2005-03-18 08:00:19 51°16.978 2°43.811 -999 3.123325 31.920651 4.308871
2005-03-18 08:00:22 51°16.985 2°43.794 -999 3.113112 31.810137 4.34258
2005-03-18 08:00:28 51°16.997 2°43.767 -999 3.125641 31.955138 4.376289
2005-03-18 08:00:34 51°17.01 2°43.739 -999 3.126484 31.968815 4.443708
2005-03-18 08:00:39 51°17.021 2°43.714 -999 3.123641 31.938309 4.578546
2005-03-18 08:00:44 51°17.031 2°43.691 -999 3.123641 31.938309 4.578546
2005-03-18 08:00:48 51°17.04 2°43.671 -999 3.127537 31.994015 4.679674
2005-03-18 08:00:54 51°17.054 2°43.64 -999 3.127221 31.999579 4.679674
2005-03-18 08:00:58 51°17.062 2°43.62 -999 3.121325 31.937802 4.747093
2005-03-18 08:01:04 51°17.074 2°43.594 -999 3.126694 32.000267 4.848221
2005-03-18 08:01:08 51°17.083 2°43.574 -999 3.097741 31.678345 4.949349
2005-03-18 08:01:14 51°17.095 2°43.546 -999 3.097741 31.678345 4.949349
2005-03-18 08:01:18 51°17.105 2°43.524 -999 3.131959 32.070728 4.949349
2005-03-18 08:01:24 51°17.116 2°43.497 -999 3.127853 32.025032 5.016768
2005-03-18 08:01:29 51°17.128 2°43.473 -999 3.127748 32.025504 4.91564
2005-03-18 08:01:34 51°17.138 2°43.449 -999 3.127326 32.027392 4.983059
2005-03-18 08:01:38 51°17.148 2°43.427 -999 3.127221 32.029529 4.949349
2005-03-18 08:01:44 51°17.159 2°43.4 -999 3.127221 32.029529 4.949349
2005-03-18 08:01:49 51°17.17 2°43.375 -999 3.12322 31.98585 4.848221
2005-03-18 08:01:54 51°17.181 2°43.352 -999 3.123641 31.992286 4.91564
2005-03-18 08:01:59 51°17.192 2°43.327 -999 3.127537 32.039773 4.848221
2005-03-18 08:02:04 51°17.202 2°43.303 -999 3.127537 32.039773 4.848221
2005-03-18 08:02:08 51°17.211 2°43.284 -999 3.127537 32.039773 4.848221
2005-03-18 08:02:14 51°17.224 2°43.253 -999 3.131749 32.086688 4.679674
2005-03-18 08:02:18 51°17.233 2°43.233 -999 3.127116 32.033333 4.679674
2005-03-18 08:02:24 51°17.245 2°43.207 -999 3.131749 32.085019 4.679674
2005-03-18 08:02:29 51°17.256 2°43.182 -999 3.1268 32.028087 4.578546
2005-03-18 08:02:34 51°17.266 2°43.158 -999 3.122904 31.983102 4.578546
2005-03-18 08:02:39 51°17.276 2°43.134 -999 3.129538 32.059118 4.511127
2005-03-18 08:02:43 51°17.286 2°43.113 -999 3.129538 32.059118 4.511127
2005-03-18 08:02:48 51°17.297 2°43.089 -999 3.128379 32.050989 4.477418
2005-03-18 08:02:54 51°17.309 2°43.063 -999 3.095319 31.679764 4.477418
2005-03-18 08:02:58 51°17.318 2°43.042 -999 3.131433 32.088114 4.443708
2005-03-18 08:03:04 51°17.33 2°43.016 -999 3.132065 32.097782 4.376289
2005-03-18 08:03:08 51°17.339 2°42.993 -999 3.135855 32.141611 4.409999
2005-03-18 08:03:14 51°17.351 2°42.967 -999 3.135855 32.141611 4.409999
2005-03-18 08:03:19 51°17.361 2°42.944 -999 3.134276 32.126203 4.308871
2005-03-18 08:03:24 51°17.371 2°42.919 -999 3.121957 31.988167 4.34258
2005-03-18 08:03:29 51°17.382 2°42.896 -999 3.128695 32.067081 4.409999
2005-03-18 08:03:34 51°17.393 2°42.872 -999 3.13396 32.129307 4.34258
2005-03-18 08:03:39 51°17.404 2°42.849 -999 3.126169 32.040922 4.376289
2005-03-18 08:03:44 51°17.415 2°42.825 -999 3.126169 32.040922 4.376289
2005-03-18 08:03:48 51°17.425 2°42.803 -999 3.13017 32.086305 4.443708
2005-03-18 08:03:54 51°17.437 2°42.777 -999 3.135434 32.146868 4.409999
2005-03-18 08:03:58 51°17.446 2°42.755 -999 3.129748 32.083197 4.34258
2005-03-18 08:04:02 51°17.454 2°42.739 -999 3.133223 32.119273 4.376289
2005-03-18 08:04:09 51°17.47 2°42.705 -999 3.121115 31.981946 4.511127
2005-03-18 08:04:14 51°17.481 2°42.681 -999 3.121115 31.981946 4.511127
2005-03-18 08:04:19 51°17.492 2°42.656 -999 3.122273 31.996743 4.477418
2005-03-18 08:04:24 51°17.503 2°42.633 -999 3.13017 32.08881 4.544836
2005-03-18 08:04:28 51°17.513 2°42.611 -999 3.139856 32.200404 4.511127
2005-03-18 08:04:34 51°17.525 2°42.585 -999 3.137856 32.181048 4.511127
2005-03-18 08:04:38 51°17.535 2°42.564 -999 3.105638 31.815632 4.544836
2005-03-18 08:04:42 51°17.544 2°42.545 -999 3.105638 31.815632 4.544836
2005-03-18 08:04:48 51°17.556 2°42.519 -999 3.13375 32.137789 4.511127
2005-03-18 08:04:54 51°17.57 2°42.49 -999 3.134697 32.149381 4.578546
2005-03-18 08:04:59 51°17.581 2°42.466 -999 3.139646 32.203881 4.645965
2005-03-18 08:05:04 51°17.592 2°42.442 -999 3.131538 32.108516 4.612255
2005-03-18 08:05:08 51°17.601 2°42.423 -999 3.139014 32.192519 4.578546
2005-03-18 08:05:14 51°17.615 2°42.392 -999 3.139014 32.192519 4.578546
2005-03-18 08:05:18 51°17.624 2°42.373 -999 3.135539 32.152246 4.511127
2005-03-18 08:05:24 51°17.637 2°42.347 -999 3.13933 32.196943 4.511127
2005-03-18 08:05:28 51°17.646 2°42.328 -999 3.134381 32.140776 4.443708
2005-03-18 08:05:34 51°17.66 2°42.3 -999 3.133118 32.127274 4.477418
2005-03-18 08:05:38 51°17.669 2°42.281 -999 3.133118 32.12811 4.443708
2005-03-18 08:05:44 51°17.683 2°42.252 -999 3.133118 32.12811 4.443708
2005-03-18 08:05:48 51°17.693 2°42.23 -999 3.138277 32.183316 4.511127
2005-03-18 08:05:54 51°17.706 2°42.204 -999 3.130275 32.092509 4.477418
2005-03-18 08:05:58 51°17.716 2°42.183 -999 3.137435 32.173755 4.409999
2005-03-18 08:06:04 51°17.729 2°42.157 -999 3.13375 32.133607 4.34258
2005-03-18 08:06:08 51°17.738 2°42.135 -999 3.122062 31.999351 4.34258
2005-03-18 08:06:14 51°17.75 2°42.11 -999 3.122062 31.999351 4.34258
2005-03-18 08:06:19 51°17.761 2°42.085 -999 3.136803 32.163237 4.140324
2005-03-18 08:06:23 51°17.77 2°42.064 -999 3.135434 32.145195 4.039195
2005-03-18 08:06:29 51°17.782 2°42.038 -999 3.129117 32.071023 3.836939
2005-03-18 08:06:34 51°17.794 2°42.011 -999 3.140804 32.203618 3.634683
2005-03-18 08:06:38 51°17.803 2°41.992 -999 3.107217 31.821108 3.634683
2005-03-18 08:06:44 51°17.814 2°41.965 -999 3.107217 31.821108 3.634683
2005-03-18 08:06:48 51°17.823 2°41.946 -999 3.140277 32.195968 3.466136
2005-03-18 08:06:54 51°17.835 2°41.917 -999 3.124168 32.012404 3.432426
2005-03-18 08:06:58 51°17.845 2°41.896 -999 3.139119 32.181988 3.297589
2005-03-18 08:07:04 51°17.857 2°41.87 -999 3.120378 31.972758 3.297589
2005-03-18 08:07:09 51°17.868 2°41.847 -999 3.145753 32.261463 3.23017
2005-03-18 08:07:14 51°17.88 2°41.824 -999 3.145753 32.261463 3.23017
2005-03-18 08:07:18 51°17.89 2°41.802 -999 3.143436 32.237686 3.263879
2005-03-18 08:07:23 51°17.901 2°41.779 -999 3.149227 32.304272 3.331298
2005-03-18 08:07:28 51°17.913 2°41.755 -999 3.136592 32.159174 3.331298
2005-03-18 08:07:34 51°17.925 2°41.73 -999 3.152913 32.348647 3.331298
2005-03-18 08:07:38 51°17.935 2°41.708 -999 3.152176 32.343643 3.331298
2005-03-18 08:07:44 51°17.948 2°41.683 -999 3.152176 32.343643 3.331298
2005-03-18 08:07:48 51°17.957 2°41.664 -999 3.15565 32.387328 3.432426
2005-03-18 08:07:53 51°17.969 2°41.638 -999 3.151018 32.339747 3.466136
2005-03-18 08:07:58 51°17.98 2°41.614 -999 3.158494 32.428074 3.634683
2005-03-18 08:08:04 51°17.993 2°41.588 -999 3.156388 32.405827 3.634683
2005-03-18 08:08:08 51°18.001 2°41.569 -999 3.152071 32.353395 3.702101
2005-03-18 08:08:14 51°18.016 2°41.538 -999 3.152071 32.353395 3.702101
2005-03-18 08:08:18 51°18.024 2°41.519 -999 3.151965 32.350514 3.634683
2005-03-18 08:08:23 51°18.036 2°41.496 -999 3.145016 32.270731 3.735811
2005-03-18 08:08:28 51°18.047 2°41.472 -999 3.155229 32.385916 3.80323
2005-03-18 08:08:34 51°18.059 2°41.448 -999 3.15207 32.349183 3.735811
2005-03-18 08:08:38 51°18.069 2°41.429 -999 3.147122 32.291286 3.702101
2005-03-18 08:08:44 51°18.082 2°41.401 -999 3.147122 32.291286 3.702101
2005-03-18 08:08:48 51°18.093 2°41.38 -999 3.152176 32.345327 3.836939
2005-03-18 08:08:54 51°18.105 2°41.354 -999 3.158599 32.416609 3.735811
2005-03-18 08:08:58 51°18.114 2°41.335 -999 3.155545 32.376861 3.80323
2005-03-18 08:09:04 51°18.127 2°41.307 -999 3.15923 32.416193 3.668392
2005-03-18 08:09:08 51°18.137 2°41.289 -999 3.158809 32.411409 3.668392
2005-03-18 08:09:14 51°18.15 2°41.262 -999 3.158809 32.411409 3.668392
2005-03-18 08:09:19 51°18.161 2°41.237 -999 3.160389 32.431882 3.634683
2005-03-18 08:09:24 51°18.172 2°41.215 -999 3.147859 32.28957 3.634683
2005-03-18 08:09:28 51°18.183 2°41.193 -999 3.163653 32.468125 3.702101
2005-03-18 08:09:34 51°18.195 2°41.168 -999 3.15744 32.394174 3.533554
2005-03-18 08:09:38 51°18.205 2°41.147 -999 3.162705 32.453979 3.499845
2005-03-18 08:09:43 51°18.216 2°41.123 -999 3.162705 32.453979 3.499845
2005-03-18 08:09:48 51°18.227 2°41.099 -999 3.16102 32.435684 3.466136
2005-03-18 08:09:53 51°18.238 2°41.076 -999 3.168707 32.521329 3.398717
2005-03-18 08:09:59 51°18.25 2°41.05 -999 3.165232 32.481845 3.331298
2005-03-18 08:10:04 51°18.261 2°41.027 -999 3.163547 32.46186 3.365007
2005-03-18 08:10:09 51°18.273 2°41.004 -999 3.159125 32.41331 3.23017
2005-03-18 08:10:14 51°18.284 2°40.98 -999 3.159125 32.41331 3.23017
2005-03-18 08:10:18 51°18.294 2°40.96 -999 3.163758 32.465942 3.331298
2005-03-18 08:10:24 51°18.307 2°40.935 -999 3.1646 32.475512 3.297589
2005-03-18 08:10:28 51°18.317 2°40.913 -999 3.157546 32.396213 3.263879
2005-03-18 08:10:34 51°18.33 2°40.886 -999 3.157335 32.392978 3.263879
2005-03-18 08:10:38 51°18.339 2°40.867 -999 3.162495 32.449897 3.23017
2005-03-18 08:10:43 51°18.349 2°40.847 -999 3.162495 32.449897 3.23017
2005-03-18 08:10:48 51°18.362 2°40.821 -999 3.159967 32.422035 3.263879
2005-03-18 08:10:54 51°18.374 2°40.796 -999 3.165864 32.484797 3.162751
2005-03-18 08:10:58 51°18.384 2°40.775 -999 3.162705 32.447224 3.263879
2005-03-18 08:11:04 51°18.397 2°40.75 -999 3.173024 32.565309 3.297589
2005-03-18 08:11:08 51°18.406 2°40.731 -999 3.171761 32.551797 3.297589
2005-03-18 08:11:14 51°18.42 2°40.703 -999 3.171761 32.551797 3.297589
2005-03-18 08:11:19 51°18.431 2°40.68 -999 3.159967 32.417817 3.263879
2005-03-18 08:11:22 51°18.439 2°40.664 -999 3.170076 32.531806 3.23017
2005-03-18 08:11:29 51°18.453 2°40.634 -999 3.170497 32.537438 3.23017
2005-03-18 08:11:34 51°18.464 2°40.61 -999 3.161336 32.433364 3.23017
2005-03-18 08:11:38 51°18.474 2°40.59 -999 3.163021 32.451656 3.19646
2005-03-18 08:11:43 51°18.486 2°40.567 -999 3.163021 32.451656 3.19646
2005-03-18 08:11:48 51°18.497 2°40.544 -999 3.172498 32.558479 3.297589
2005-03-18 08:11:54 51°18.511 2°40.516 -999 3.166601 32.492326 3.23017
2005-03-18 08:11:58 51°18.52 2°40.497 -999 3.166075 32.48719 3.297589
2005-03-18 08:12:04 51°18.532 2°40.472 -999 3.164284 32.465165 3.365007
2005-03-18 08:12:08 51°18.541 2°40.454 -999 3.148069 32.2844 3.466136
2005-03-18 08:12:13 51°18.554 2°40.429 -999 3.148069 32.2844 3.466136
2005-03-18 08:12:18 51°18.566 2°40.406 -999 3.177447 32.618119 3.432426
2005-03-18 08:12:24 51°18.579 2°40.381 -999 3.162284 32.444972 3.432426
2005-03-18 08:12:28 51°18.588 2°40.363 -999 3.167128 32.497461 3.499845
2005-03-18 08:12:33 51°18.601 2°40.338 -999 3.168496 32.513859 3.499845
2005-03-18 08:12:38 51°18.612 2°40.314 -999 3.166075 32.486344 3.634683
2005-03-18 08:12:44 51°18.625 2°40.289 -999 3.166075 32.486344 3.634683
2005-03-18 08:12:48 51°18.634 2°40.271 -999 3.171971 32.555884 3.634683
2005-03-18 08:12:53 51°18.647 2°40.245 -999 3.174709 32.590392 3.668392
2005-03-18 08:12:58 51°18.658 2°40.222 -999 3.173024 32.572089 3.634683
2005-03-18 08:13:04 51°18.671 2°40.197 -999 3.171445 32.552442 3.634683
2005-03-18 08:13:08 51°18.68 2°40.178 -999 3.16797 32.512107 3.600973
2005-03-18 08:13:14 51°18.694 2°40.151 -999 3.16797 32.512107 3.600973
2005-03-18 08:13:18 51°18.704 2°40.13 -999 3.175025 32.591438 3.600973
2005-03-18 08:13:24 51°18.717 2°40.104 -999 3.181027 32.658821 3.567264
2005-03-18 08:13:29 51°18.728 2°40.082 -999 3.172182 32.55743 3.398717
2005-03-18 08:13:34 51°18.74 2°40.059 -999 3.175762 32.59812 3.263879
2005-03-18 08:13:39 51°18.752 2°40.036 -999 3.174814 32.584805 3.263879
2005-03-18 08:13:44 51°18.764 2°40.014 -999 3.174814 32.584805 3.263879
2005-03-18 08:13:48 51°18.775 2°39.993 -999 3.178921 32.630633 3.263879
2005-03-18 08:13:54 51°18.787 2°39.968 -999 3.175341 32.585702 3.162751
2005-03-18 08:13:59 51°18.798 2°39.945 -999 3.181869 32.659051 3.162751
2005-03-18 08:14:04 51°18.81 2°39.922 -999 3.17513 32.579071 3.162751
2005-03-18 08:14:09 51°18.822 2°39.899 -999 3.174709 32.577675 3.061623
2005-03-18 08:14:14 51°18.833 2°39.876 -999 3.174709 32.577675 3.061623
2005-03-18 08:14:18 51°18.843 2°39.855 -999 3.176604 32.604302 3.027913
2005-03-18 08:14:23 51°18.855 2°39.832 -999 3.170813 32.540181 3.162751
2005-03-18 08:14:28 51°18.865 2°39.811 -999 3.173024 32.564462 3.129042
2005-03-18 08:14:34 51°18.878 2°39.784 -999 3.176078 32.598318 2.994204
2005-03-18 08:14:38 51°18.889 2°39.763 -999 3.18029 32.646193 2.859366
2005-03-18 08:14:44 51°18.901 2°39.738 -999 3.18029 32.646193 2.859366
2005-03-18 08:14:48 51°18.912 2°39.717 -999 3.182606 32.675929 2.791947
2005-03-18 08:14:54 51°18.924 2°39.692 -999 3.178816 32.632832 2.825657
2005-03-18 08:14:59 51°18.935 2°39.668 -999 3.185449 32.709109 2.758238
2005-03-18 08:15:04 51°18.946 2°39.645 -999 3.186924 32.726726 2.690819
2005-03-18 08:15:08 51°18.957 2°39.624 -999 3.178921 32.638275 2.724529
2005-03-18 08:15:14 51°18.969 2°39.599 -999 3.178921 32.638275 2.724529
2005-03-18 08:15:19 51°18.981 2°39.575 -999 3.172182 32.563361 2.6234
2005-03-18 08:15:24 51°18.992 2°39.552 -999 3.178816 32.642175 2.589691
2005-03-18 08:15:28 51°19.002 2°39.53 -999 3.145437 32.263754 2.6234
2005-03-18 08:15:34 51°19.016 2°39.503 -999 3.172814 32.577325 2.6234
2005-03-18 08:15:38 51°19.025 2°39.484 -999 3.179026 32.652218 2.690819
2005-03-18 08:15:44 51°19.038 2°39.459 -999 3.179026 32.652218 2.690819
2005-03-18 08:15:49 51°19.049 2°39.435 -999 3.177763 32.640396 2.825657
2005-03-18 08:15:54 51°19.06 2°39.412 -999 3.180922 32.675479 2.791947
2005-03-18 08:15:58 51°19.071 2°39.391 -999 3.163548 32.477917 2.825657
2005-03-18 08:16:04 51°19.084 2°39.366 -999 3.173551 32.592493 2.859366
2005-03-18 08:16:08 51°19.093 2°39.347 -999 3.181975 32.690011 2.791947
2005-03-18 08:16:13 51°19.105 2°39.322 -999 3.181975 32.690011 2.791947
2005-03-18 08:16:19 51°19.119 2°39.296 -999 3.173446 32.595538 2.859366
2005-03-18 08:16:24 51°19.129 2°39.275 -999 3.174709 32.612458 2.724529
2005-03-18 08:16:29 51°19.142 2°39.249 -999 3.142173 32.243482 2.65711
2005-03-18 08:16:34 51°19.152 2°39.228 -999 3.18208 32.698872 2.589691
2005-03-18 08:16:38 51°19.161 2°39.208 -999 3.16618 32.517999 2.387435
2005-03-18 08:16:44 51°19.174 2°39.182 -999 3.16618 32.517999 2.387435
2005-03-18 08:16:47 51°19.181 2°39.166 -999 3.179764 32.669108 2.387435
2005-03-18 08:16:54 51°19.196 2°39.136 -999 3.177026 32.63796 2.286306
2005-03-18 08:16:58 51°19.206 2°39.115 -999 3.185029 32.728165 2.218888
2005-03-18 08:17:04 51°19.218 2°39.09 -999 3.172182 32.581168 2.050341
2005-03-18 08:17:09 51°19.229 2°39.066 -999 3.180817 32.682791 1.949212
2005-03-18 08:17:13 51°19.238 2°39.045 -999 3.180817 32.682791 1.949212
2005-03-18 08:17:18 51°19.248 2°39.024 -999 3.180817 32.685344 1.814375
2005-03-18 08:17:24 51°19.261 2°38.997 -999 3.181132 32.688088 1.746956
2005-03-18 08:17:29 51°19.273 2°38.973 -999 3.182396 32.703319 1.679537
2005-03-18 08:17:34 51°19.285 2°38.948 -999 3.182291 32.702972 1.679537
2005-03-18 08:17:38 51°19.294 2°38.929 -999 3.171866 32.585212 1.645828
2005-03-18 08:17:44 51°19.306 2°38.904 -999 3.171866 32.585212 1.645828
2005-03-18 08:17:49 51°19.318 2°38.88 -999 3.168602 32.550626 1.578409
2005-03-18 08:17:54 51°19.328 2°38.857 -999 3.151018 32.349855 1.612118
2005-03-18 08:17:58 51°19.338 2°38.836 -999 3.168076 32.544638 1.645828
2005-03-18 08:18:04 51°19.351 2°38.81 -999 3.178921 32.670584 1.679537
2005-03-18 08:18:08 51°19.359 2°38.791 -999 3.173025 32.604332 1.679537
2005-03-18 08:18:14 51°19.374 2°38.762 -999 3.173025 32.604332 1.679537
2005-03-18 08:18:18 51°19.383 2°38.743 -999 3.183133 32.721082 1.713247
2005-03-18 08:18:24 51°19.395 2°38.717 -999 3.175341 32.630692 1.780665
2005-03-18 08:18:28 51°19.404 2°38.698 -999 3.175341 32.629842 1.713247
2005-03-18 08:18:34 51°19.417 2°38.67 -999 3.166707 32.534154 1.746956
2005-03-18 08:18:39 51°19.429 2°38.647 -999 3.17155 32.590107 1.746956
2005-03-18 08:18:44 51°19.44 2°38.623 -999 3.17155 32.590107 1.746956
2005-03-18 08:18:48 51°19.45 2°38.602 -999 3.174183 32.623461 1.881794
2005-03-18 08:18:53 51°19.461 2°38.579 -999 3.175341 32.637494 1.881794
2005-03-18 08:18:59 51°19.474 2°38.553 -999 3.174394 32.627558 1.982922
2005-03-18 08:19:04 51°19.485 2°38.529 -999 3.174499 32.631308 2.050341
2005-03-18 08:19:08 51°19.496 2°38.509 -999 3.177447 32.664018 2.185178
2005-03-18 08:19:14 51°19.508 2°38.483 -999 3.177447 32.664018 2.185178
2005-03-18 08:19:19 51°19.518 2°38.459 -999 3.175131 32.638499 2.320016
2005-03-18 08:19:24 51°19.53 2°38.436 -999 3.173551 32.620521 2.387435
2005-03-18 08:19:28 51°19.539 2°38.417 -999 3.177658 32.669821 2.589691
2005-03-18 08:19:34 51°19.552 2°38.389 -999 3.167655 32.555112 2.65711
2005-03-18 08:19:38 51°19.562 2°38.367 -999 3.177553 32.667771 2.825657
2005-03-18 08:19:43 51°19.573 2°38.344 -999 3.177553 32.667771 2.825657
2005-03-18 08:19:49 51°19.586 2°38.317 -999 3.170498 32.588315 2.825657
2005-03-18 08:19:54 51°19.598 2°38.292 -999 3.167233 32.549471 2.859366
2005-03-18 08:19:58 51°19.607 2°38.273 -999 3.171761 32.601847 2.859366
2005-03-18 08:20:03 51°19.618 2°38.249 -999 3.173025 32.613679 2.859366
2005-03-18 08:20:08 51°19.628 2°38.228 -999 3.176394 32.649479 2.791947
2005-03-18 08:20:14 51°19.643 2°38.198 -999 3.176394 32.649479 2.791947
2005-03-18 08:20:18 51°19.652 2°38.179 -999 3.176499 32.651529 2.690819
2005-03-18 08:20:24 51°19.664 2°38.153 -999 3.177552 32.662663 2.65711
2005-03-18 08:20:28 51°19.675 2°38.132 -999 3.180606 32.696574 2.454853
2005-03-18 08:20:34 51°19.687 2°38.106 -999 3.175341 32.636644 2.421144
2005-03-18 08:20:38 51°19.696 2°38.088 -999 3.169866 32.575182 2.320016
2005-03-18 08:20:44 51°19.709 2°38.06 -999 3.169866 32.575182 2.320016
2005-03-18 08:20:48 51°19.718 2°38.041 -999 3.176184 32.647933 2.286306
2005-03-18 08:20:52 51°19.728 2°38.022 -999 3.176921 32.654621 2.252597
2005-03-18 08:20:59 51°19.743 2°37.989 -999 3.167549 32.547128 2.218888
2005-03-18 08:21:04 51°19.754 2°37.965 -999 3.175868 32.642636 2.151469
2005-03-18 08:21:09 51°19.766 2°37.942 -999 3.177342 32.660266 2.151469
2005-03-18 08:21:14 51°19.777 2°37.918 -999 3.177342 32.660266 2.151469
2005-03-18 08:21:19 51°19.788 2°37.894 -999 3.17671 32.653075 2.08405
2005-03-18 08:21:24 51°19.799 2°37.871 -999 3.184923 32.746581 2.117759
2005-03-18 08:21:28 51°19.809 2°37.849 -999 3.170603 32.581871 2.08405
2005-03-18 08:21:34 51°19.821 2°37.824 -999 3.180711 32.696068 2.252597
2005-03-18 08:21:38 51°19.832 2°37.804 -999 3.180711 32.695217 2.185178
2005-03-18 08:21:44 51°19.844 2°37.778 -999 3.180711 32.695217 2.185178
2005-03-18 08:21:49 51°19.855 2°37.755 -999 3.155651 32.41011 2.218888
2005-03-18 08:21:54 51°19.866 2°37.732 -999 3.161442 32.474273 2.286306
2005-03-18 08:21:58 51°19.876 2°37.711 -999 3.179237 32.672477 2.320016
2005-03-18 08:22:04 51°19.889 2°37.685 -999 3.182817 32.71152 2.320016
2005-03-18 08:22:08 51°19.898 2°37.667 -999 3.183554 32.716501 2.353725
2005-03-18 08:22:14 51°19.911 2°37.639 -999 3.183554 32.716501 2.353725
2005-03-18 08:22:18 51°19.921 2°37.618 -999 3.16081 32.455251 2.421144
2005-03-18 08:22:24 51°19.934 2°37.592 -999 3.184818 32.726621 2.320016
2005-03-18 08:22:28 51°19.944 2°37.57 -999 3.181448 32.685723 2.286306
2005-03-18 08:22:34 51°19.956 2°37.545 -999 3.180606 32.672736 2.252597
2005-03-18 08:22:38 51°19.966 2°37.524 -999 3.178816 32.648123 2.286306
2005-03-18 08:22:44 51°19.978 2°37.498 -999 3.178816 32.648123 2.286306
2005-03-18 08:22:48 51°19.988 2°37.476 -999 3.162179 32.458978 2.252597
2005-03-18 08:22:54 51°20 2°37.451 -999 3.183449 32.699121 2.185178
2005-03-18 08:22:58 51°20.01 2°37.43 -999 3.191241 32.785217 2.185178
2005-03-18 08:23:04 51°20.023 2°37.404 -999 3.182501 32.681535 2.08405
2005-03-18 08:23:09 51°20.033 2°37.381 -999 3.18724 32.73117 2.050341
2005-03-18 08:23:14 51°20.045 2°37.358 -999 3.18724 32.73117 2.050341
2005-03-18 08:23:18 51°20.054 2°37.339 -999 3.194821 32.812293 2.016631
2005-03-18 08:23:24 51°20.067 2°37.311 -999 3.185976 32.709138 1.982922
2005-03-18 08:23:28 51°20.078 2°37.29 -999 3.187134 32.718053 1.982922
2005-03-18 08:23:34 51°20.09 2°37.265 -999 3.193558 32.789387 1.915503
2005-03-18 08:23:39 51°20.101 2°37.241 -999 3.17513 32.579071 1.949212
2005-03-18 08:23:44 51°20.112 2°37.217 -999 3.17513 32.579071 1.949212
2005-03-18 08:23:48 51°20.122 2°37.196 -999 3.168917 32.505114 1.881794
2005-03-18 08:23:54 51°20.135 2°37.171 -999 3.195348 32.802919 1.982922
2005-03-18 08:23:59 51°20.145 2°37.148 -999 3.192083 32.767509 1.915503
2005-03-18 08:24:04 51°20.157 2°37.125 -999 3.17355 32.556046 1.949212
2005-03-18 08:24:09 51°20.169 2°37.099 -999 3.193768 32.78496 1.949212
2005-03-18 08:24:14 51°20.18 2°37.076 -999 3.193768 32.78496 1.949212
2005-03-18 08:24:19 51°20.19 2°37.055 -999 3.178078 32.60494 1.915503
2005-03-18 08:24:24 51°20.201 2°37.032 -999 3.192189 32.767854 1.915503
2005-03-18 08:24:28 51°20.212 2°37.01 -999 3.170076 32.519115 1.881794
2005-03-18 08:24:33 51°20.223 2°36.986 -999 3.184186 32.683684 1.848084
2005-03-18 08:24:38 51°20.234 2°36.963 -999 3.190925 32.76627 1.982922
2005-03-18 08:24:44 51°20.247 2°36.937 -999 3.190925 32.76627 1.982922
2005-03-18 08:24:48 51°20.256 2°36.919 -999 3.193347 32.796376 1.915503
2005-03-18 08:24:54 51°20.27 2°36.888 -999 3.193979 32.80527 2.016631
2005-03-18 08:24:58 51°20.279 2°36.87 -999 3.189556 32.755815 1.915503
2005-03-18 08:25:04 51°20.291 2°36.844 -999 3.182817 32.680024 1.915503
2005-03-18 08:25:08 51°20.3 2°36.825 -999 3.181869 32.671799 1.949212
2005-03-18 08:25:14 51°20.315 2°36.795 -999 3.181869 32.671799 1.949212
2005-03-18 08:25:18 51°20.324 2°36.776 -999 3.183765 32.695906 1.915503
2005-03-18 08:25:24 51°20.337 2°36.749 -999 3.188714 32.753904 1.949212
2005-03-18 08:25:28 51°20.347 2°36.728 -999 3.181132 32.672771 2.050341
2005-03-18 08:25:33 51°20.358 2°36.705 -999 3.185555 32.729043 2.016631
2005-03-18 08:25:39 51°20.37 2°36.679 -999 3.185344 32.728351 2.08405
2005-03-18 08:25:44 51°20.381 2°36.656 -999 3.185344 32.728351 2.08405
2005-03-18 08:25:48 51°20.391 2°36.634 -999 3.190715 32.791176 1.949212
2005-03-18 08:25:54 51°20.403 2°36.609 -999 3.176183 32.627528 2.016631
2005-03-18 08:25:58 51°20.414 2°36.588 -999 3.1924 32.808645 1.982922
2005-03-18 08:26:03 51°20.425 2°36.565 -999 3.188503 32.766007 1.949212
2005-03-18 08:26:08 51°20.436 2°36.541 -999 3.173446 32.597236 1.915503
2005-03-18 08:26:13 51°20.448 2°36.518 -999 3.173446 32.597236 1.915503
2005-03-18 08:26:18 51°20.459 2°36.494 -999 3.181448 32.691682 2.016631
2005-03-18 08:26:24 51°20.471 2°36.468 -999 3.186608 32.752964 2.016631
2005-03-18 08:26:28 51°20.479 2°36.449 -999 3.178921 32.668882 2.050341
2005-03-18 08:26:34 51°20.493 2°36.42 -999 3.184818 32.741116 2.050341
2005-03-18 08:26:38 51°20.503 2°36.4 -999 3.191768 32.821966 2.08405
2005-03-18 08:26:44 51°20.516 2°36.375 -999 3.191768 32.821966 2.08405
2005-03-18 08:26:49 51°20.53 2°36.355 -999 3.184923 32.744875 2.117759
2005-03-18 08:26:54 51°20.544 2°36.335 -999 3.190715 32.810828 2.185178
2005-03-18 08:26:59 51°20.559 2°36.318 -999 3.185134 32.747273 2.151469
2005-03-18 08:27:04 51°20.575 2°36.304 -999 3.181238 32.703766 2.185178
2005-03-18 08:27:08 51°20.591 2°36.293 -999 3.17829 32.669351 2.252597
2005-03-18 08:27:14 51°20.61 2°36.28 -999 3.17829 32.669351 2.252597
2005-03-18 08:27:19 51°20.628 2°36.27 -999 3.184081 32.732724 2.320016
2005-03-18 08:27:24 51°20.646 2°36.262 -999 3.174288 32.61786 2.320016
2005-03-18 08:27:28 51°20.66 2°36.257 -999 3.176394 32.640123 2.353725
2005-03-18 08:27:34 51°20.682 2°36.25 -999 3.157019 32.416384 2.454853
2005-03-18 08:27:38 51°20.698 2°36.246 -999 3.179342 32.670271 2.488563
2005-03-18 08:27:44 51°20.717 2°36.244 -999 3.179342 32.670271 2.488563
2005-03-18 08:27:48 51°20.733 2°36.24 -999 3.17134 32.581769 2.522272
2005-03-18 08:27:54 51°20.751 2°36.241 -999 3.175025 32.625397 2.690819
2005-03-18 08:27:59 51°20.767 2°36.239 -999 3.1785 32.663238 2.690819
2005-03-18 08:28:04 51°20.784 2°36.238 -999 3.184502 32.73155 2.791947
2005-03-18 08:28:08 51°20.799 2°36.239 -999 3.177131 32.64681 2.859366
2005-03-18 08:28:14 51°20.816 2°36.238 -999 3.177131 32.64681 2.859366
2005-03-18 08:28:19 51°20.833 2°36.24 -999 3.183765 32.722307 2.791947
2005-03-18 08:28:24 51°20.849 2°36.239 -999 3.186187 32.749876 2.859366
2005-03-18 08:28:29 51°20.867 2°36.24 -999 3.166812 32.531114 2.960494
2005-03-18 08:28:34 51°20.882 2°36.24 -999 3.185134 32.739595 2.926785
2005-03-18 08:28:38 51°20.897 2°36.24 -999 3.1924 32.82232 3.061623
2005-03-18 08:28:44 51°20.915 2°36.241 -999 3.1924 32.82232 3.061623
2005-03-18 08:28:49 51°20.931 2°36.241 -999 3.188609 32.780863 2.994204
2005-03-18 08:28:54 51°20.948 2°36.241 -999 3.171024 32.580721 3.027913
2005-03-18 08:28:58 51°20.962 2°36.241 -999 3.172814 32.600238 2.994204
2005-03-18 08:29:04 51°20.981 2°36.241 -999 3.188398 32.776758 2.994204
2005-03-18 08:29:08 51°20.996 2°36.242 -999 3.189662 32.790291 3.061623
2005-03-18 08:29:14 51°21.014 2°36.242 -999 3.189662 32.790291 3.061623
2005-03-18 08:29:19 51°21.03 2°36.242 -999 3.183554 32.71991 3.095332
2005-03-18 08:29:24 51°21.046 2°36.243 -999 3.157862 32.425115 3.095332
2005-03-18 08:29:28 51°21.061 2°36.242 -999 3.178079 32.653341 3.027913
2005-03-18 08:29:34 51°21.081 2°36.243 -999 3.174709 32.615855 2.994204
2005-03-18 08:29:39 51°21.096 2°36.244 -999 3.185029 32.734985 2.994204
2005-03-18 08:29:43 51°21.111 2°36.243 -999 3.185029 32.734985 2.994204
2005-03-18 08:29:48 51°21.126 2°36.243 -999 3.179658 32.672164 2.926785
2005-03-18 08:29:54 51°21.145 2°36.244 -999 3.185976 32.741508 2.960494
2005-03-18 08:29:59 51°21.162 2°36.244 -999 3.18566 32.739618 2.893076
2005-03-18 08:30:04 51°21.179 2°36.245 -999 3.189556 32.781406 2.960494
2005-03-18 08:30:09 51°21.195 2°36.245 -999 3.18545 32.732959 2.859366
2005-03-18 08:30:14 51°21.211 2°36.245 -999 3.18545 32.732959 2.859366
2005-03-18 08:30:19 51°21.228 2°36.245 -999 3.183765 32.714638 2.893076
2005-03-18 08:30:24 51°21.244 2°36.247 -999 3.190925 32.795281 2.859366
2005-03-18 08:30:29 51°21.261 2°36.246 -999 3.184291 32.719777 2.859366
2005-03-18 08:30:34 51°21.278 2°36.248 -999 3.183449 32.710191 2.926785
2005-03-18 08:30:38 51°21.293 2°36.247 -999 3.184081 32.716529 2.859366
2005-03-18 08:30:44 51°21.312 2°36.249 -999 3.184081 32.716529 2.859366
2005-03-18 08:30:49 51°21.329 2°36.249 -999 3.182185 32.69411 2.994204
2005-03-18 08:30:54 51°21.345 2°36.251 -999 3.184291 32.718925 2.825657
2005-03-18 08:30:58 51°21.36 2°36.251 -999 3.175657 32.618991 2.825657
2005-03-18 08:31:04 51°21.379 2°36.253 -999 3.186187 32.737937 2.825657
2005-03-18 08:31:08 51°21.392 2°36.255 -999 3.188082 32.757801 2.859366
2005-03-18 08:31:13 51°21.411 2°36.256 -999 3.188082 32.757801 2.859366
2005-03-18 08:31:18 51°21.427 2°36.256 -999 3.187556 32.753515 2.825657
2005-03-18 08:31:24 51°21.446 2°36.258 -999 3.18566 32.731946 2.859366
2005-03-18 08:31:29 51°21.463 2°36.261 -999 3.187872 32.75711 2.791947
2005-03-18 08:31:34 51°21.48 2°36.261 -999 3.18724 32.748214 2.859366
2005-03-18 08:31:39 51°21.497 2°36.264 -999 3.187661 32.752155 2.893076
2005-03-18 08:31:44 51°21.514 2°36.264 -999 3.187661 32.752155 2.893076
2005-03-18 08:31:48 51°21.527 2°36.265 -999 3.183449 32.701675 2.893076
2005-03-18 08:31:54 51°21.548 2°36.268 -999 3.18903 32.76432 2.893076
2005-03-18 08:31:58 51°21.563 2°36.269 -999 3.189767 32.772708 2.859366
2005-03-18 08:32:04 51°21.582 2°36.271 -999 3.178079 32.63889 2.825657
2005-03-18 08:32:08 51°21.597 2°36.272 -999 3.189767 32.772708 2.893076
2005-03-18 08:32:14 51°21.616 2°36.273 -999 3.189767 32.772708 2.893076